GFSGL_925_thetae_051.txt.gz
Theta_e
304 303 303 304 302 300 300 299 297 297 296 296 295 295 296 296 296 296 297 296 295 295 294 294 293 292 291 290 290 290 289 289 290 289 288 288 288 288 288 287 287 287 288
303 303 301 300 300 299 298 297 297 296 296 296 295 296 296 295 295 295 295 295 294 293 293 293 292 291 290 290 289 289 289 288 288 289 288 287 287 286 286 286 286 286 287
302 300 299 299 298 297 297 297 296 296 296 295 295 295 295 296 295 294 293 293 293 292 292 291 290 290 289 288 288 288 287 286 286 287 287 286 286 285 285 285 285 286 286
299 299 297 297 297 297 297 296 296 296 295 295 295 295 294 293 293 293 292 291 291 291 291 290 289 288 287 286 285 284 284 284 285 285 285 285 284 284 284 285 285 285 286
298 297 296 296 296 296 296 296 296 295 295 295 295 294 293 292 292 291 291 291 290 290 289 288 287 286 284 283 282 282 283 282 283 283 283 283 283 284 285 285 285 285 285
297 296 295 295 294 295 295 295 295 295 295 295 294 293 293 292 290 290 288 289 289 288 287 287 286 285 284 283 283 282 281 281 281 282 283 283 284 283 284 285 285 285 286
295 294 294 293 293 294 294 294 295 295 294 294 293 292 293 293 290 288 286 286 287 287 287 286 285 285 284 283 282 281 281 281 282 282 282 283 283 284 283 283 283 284 284
294 293 293 293 293 293 294 294 295 294 294 292 292 292 291 292 288 287 285 285 287 287 286 285 285 284 283 281 280 280 280 281 281 282 281 282 282 281 281 281 282 283 284
293 293 293 293 293 294 294 294 294 293 293 291 291 291 291 291 287 286 284 285 286 286 285 285 284 283 282 280 278 279 280 280 281 281 280 280 280 281 281 282 283 284 286
293 293 293 293 293 293 293 292 292 292 292 291 290 290 290 289 288 286 284 285 285 284 284 284 283 282 280 278 278 278 279 280 279 279 279 280 281 282 282 283 284 285 285
293 292 293 293 293 292 291 291 291 291 291 290 289 289 289 289 288 286 284 283 284 284 283 283 283 281 279 277 277 278 279 277 277 279 280 280 281 282 282 282 283 283 284
292 292 292 292 292 292 291 291 291 291 289 288 288 287 288 288 287 286 284 283 282 282 282 283 283 280 278 277 277 278 277 277 279 279 279 280 280 281 281 282 282 283 284
292 292 292 291 290 291 291 291 290 288 288 288 288 289 288 287 287 286 284 283 282 281 282 281 280 279 278 278 279 277 277 279 278 278 279 279 280 280 281 282 283 284 284
292 292 291 290 289 288 289 289 289 288 288 288 287 287 287 287 286 286 285 284 283 282 282 283 280 280 280 279 279 280 279 279 277 278 278 279 279 280 281 281 282 283 284
291 291 291 290 288 287 287 288 288 288 288 287 287 286 286 286 286 285 284 283 284 283 281 281 281 282 281 281 280 280 279 279 278 277 277 278 278 279 280 280 282 282 284
291 291 291 290 288 287 287 287 287 287 286 286 285 283 283 283 284 283 283 282 281 281 281 281 282 283 282 281 280 280 279 279 278 276 277 277 278 278 278 280 281 281 282
291 290 290 289 288 288 287 287 287 287 286 286 285 284 284 282 282 283 283 282 282 281 280 281 282 282 282 281 281 280 279 278 277 277 276 277 277 277 278 279 280 280 280
291 290 289 289 288 288 288 287 287 287 286 286 286 285 284 284 283 282 282 282 282 282 281 282 282 282 282 281 280 280 279 278 278 277 276 277 276 276 277 278 279 279 279
291 290 289 289 288 288 287 287 287 286 286 286 286 285 285 284 283 282 282 282 283 283 283 283 283 282 282 281 280 280 278 278 277 276 277 277 276 276 276 277 277 278 278
291 290 289 289 288 288 288 288 288 287 287 287 287 286 285 285 285 284 283 283 283 283 283 283 283 282 282 281 280 280 279 278 278 277 277 276 277 276 276 276 277 277 278
290 290 288 288 288 288 288 288 288 288 287 287 287 286 285 285 285 285 285 285 285 284 284 283 283 283 282 281 280 279 279 278 278 277 276 276 276 275 276 276 276 276 277
290 288 287 286 286 286 286 286 286 286 287 287 287 287 286 285 285 284 284 284 284 284 284 283 283 283 282 281 280 280 279 278 277 277 276 275 275 276 276 276 276 276 276
288 287 286 286 286 286 286 286 286 286 287 287 287 287 287 286 286 285 285 284 284 284 283 283 283 282 282 281 280 279 279 278 277 277 275 274 275 276 275 276 276 276 275
287 287 286 286 286 286 286 286 286 286 286 286 286 286 286 286 286 286 286 285 285 284 284 283 282 282 282 281 280 278 278 277 276 275 273 273 274 275 275 275 275 275 275
286 286 286 286 285 286 285 285 285 286 286 286 286 285 285 285 285 285 285 285 285 285 284 283 282 282 281 281 280 278 278 276 275 274 273 272 273 273 273 274 274 274 274
285 284 283 283 282 282 282 282 282 282 283 283 283 284 284 284 284 285 285 284 285 285 284 283 282 282 281 280 279 278 277 276 274 273 272 273 274 274 274 274 274 274 274

GFSGL_925_thetae_054.txt.gz
Theta_e
307 304 303 305 304 302 301 300 299 298 297 297 296 296 296 296 296 296 296 296 296 295 294 294 294 293 292 291 291 290 290 290 289 289 289 288 288 288 287 286 286 286 286
305 304 303 303 301 300 299 298 298 297 297 296 296 296 296 296 296 296 295 294 294 293 293 293 292 292 291 290 290 289 288 286 286 286 286 286 287 286 286 285 285 285 285
303 303 301 300 299 298 298 298 297 296 296 296 296 296 295 295 293 293 293 292 292 292 292 292 291 290 290 288 287 285 284 284 284 284 284 284 285 284 284 284 284 285 285
302 300 299 298 298 298 298 297 297 296 296 296 296 295 295 294 293 293 292 292 292 291 291 291 290 289 287 286 284 283 283 283 283 283 282 283 283 283 283 284 285 285 285
300 299 297 297 297 296 296 296 296 296 296 296 295 295 294 294 294 292 292 291 291 291 290 289 288 286 286 285 283 283 283 282 282 281 282 282 283 283 283 284 284 284 284
298 297 296 295 295 294 294 294 295 295 295 295 295 294 294 293 293 292 290 289 289 288 288 287 287 286 285 284 283 282 281 281 281 281 282 282 283 282 283 284 283 283 283
296 295 295 294 294 294 294 294 294 295 295 295 294 293 292 292 292 292 288 287 287 287 287 287 286 286 285 284 283 282 280 280 281 281 281 282 283 282 282 281 281 281 282
295 294 294 294 293 293 294 294 295 295 294 294 293 292 292 292 291 290 287 286 286 287 287 286 285 285 284 283 281 280 278 279 280 280 281 281 280 280 280 281 281 282 282
294 294 293 293 293 293 294 294 293 293 293 293 292 291 291 291 291 287 286 285 285 286 285 284 285 284 283 282 281 278 278 278 279 280 278 279 280 281 281 281 282 282 283
294 293 293 293 293 293 293 293 292 291 291 292 291 289 290 289 289 288 286 285 284 285 284 284 284 283 282 281 279 277 277 278 279 277 278 279 280 280 281 282 282 283 283
293 293 293 293 293 293 293 292 292 292 292 291 290 288 288 288 289 288 287 285 284 284 284 283 283 282 281 280 278 277 278 278 277 278 279 279 280 280 281 281 281 282 282
293 293 292 293 292 292 291 292 292 292 290 289 289 288 287 287 288 288 287 285 284 283 282 282 283 283 281 279 278 278 278 278 278 279 278 279 279 280 280 280 281 282 283
292 292 292 292 292 290 290 289 290 290 289 288 288 288 288 288 287 287 287 286 284 283 282 282 282 281 281 280 280 279 279 279 279 278 278 278 279 279 279 280 281 281 282
292 292 292 292 291 290 289 288 288 289 289 289 288 288 288 287 287 287 286 286 284 283 282 282 282 281 281 281 281 281 280 280 279 278 278 277 278 278 279 279 280 281 282
292 292 292 292 292 290 289 288 287 287 287 287 287 287 286 286 286 286 286 285 284 284 283 282 281 281 283 282 281 281 280 280 279 278 277 277 277 278 278 278 279 281 281
292 291 291 291 290 289 288 288 287 287 287 286 286 286 286 285 284 283 283 283 283 282 281 281 281 281 283 283 281 281 280 280 279 278 277 277 277 277 277 278 279 280 281
292 292 291 291 290 289 288 288 288 288 287 287 287 286 286 285 284 284 283 282 283 282 282 281 280 281 283 283 282 281 280 279 278 278 277 277 277 276 276 277 278 279 279
292 292 291 291 290 290 289 288 288 288 287 287 287 286 286 285 285 284 283 282 283 283 282 282 281 282 282 282 282 281 280 279 278 278 277 277 277 276 276 277 277 278 278
292 292 292 291 291 290 289 288 288 288 287 287 287 286 286 286 285 285 284 283 283 283 283 283 282 282 283 283 282 281 280 279 278 277 277 277 277 277 276 276 276 277 277
292 292 292 291 290 289 289 289 289 288 288 288 287 287 287 287 286 285 284 284 283 283 283 283 283 283 283 283 282 281 280 279 278 278 278 277 277 276 276 276 276 276 277
292 292 292 291 289 288 288 288 288 288 287 287 288 288 287 287 286 286 286 285 284 284 284 284 284 284 283 283 282 281 280 279 279 278 277 276 276 275 276 276 277 276 276
290 291 291 290 287 286 286 286 286 286 286 286 286 287 287 287 286 286 285 285 285 284 284 285 284 284 283 283 282 281 280 279 278 278 277 277 276 276 276 276 276 276 275
287 287 289 288 287 286 286 286 287 287 286 287 287 287 287 286 287 286 286 286 285 285 284 284 284 284 283 283 282 281 280 280 279 278 277 276 275 275 276 275 276 276 275
285 285 287 287 287 286 286 286 286 286 286 285 287 286 286 285 285 285 285 286 286 286 285 285 284 284 283 283 282 282 280 279 278 278 277 275 274 275 275 275 275 275 275
285 285 286 286 285 284 283 282 281 281 281 280 280 282 283 283 283 284 285 285 285 285 285 285 285 284 283 283 282 282 281 279 278 277 275 274 273 274 274 274 274 274 274
284 284 283 282 281 280 279 279 279 278 278 277 278 277 278 279 279 279 279 282 284 284 284 284 285 284 283 282 282 281 280 279 277 276 275 273 273 274 274 274 274 274 274

GFSGL_925_thetae_057.txt.gz
Theta_e
308 307 306 305 305 305 302 301 300 298 297 297 296 296 296 296 296 296 296 295 295 294 293 293 293 293 292 291 290 290 288 285 285 285 285 285 284 285 285 285 285 284 284
307 305 306 305 303 301 300 299 298 297 297 296 296 296 296 296 296 295 293 292 292 292 291 292 292 291 291 290 289 287 286 284 284 283 283 283 283 283 283 283 283 283 284
306 304 302 303 301 298 298 297 297 297 296 296 296 296 295 296 295 294 293 293 291 290 291 291 291 290 290 288 286 285 284 283 283 282 282 282 281 282 282 282 283 283 283
303 302 301 299 298 298 297 297 296 296 296 296 296 295 295 294 294 293 293 291 291 291 291 291 290 289 286 286 285 284 283 282 282 282 281 280 281 281 282 283 282 283 283
301 297 296 296 296 296 295 295 295 294 295 295 295 296 295 294 293 293 292 292 290 290 290 289 288 286 286 285 284 284 283 282 281 281 280 281 281 281 282 281 283 282 281
297 296 295 295 294 294 294 294 294 294 294 295 295 295 294 293 292 292 292 291 290 288 288 287 287 286 285 284 284 283 282 281 280 280 280 280 280 281 282 281 280 280 280
295 295 294 294 294 294 293 293 294 294 295 294 294 294 292 292 292 292 291 290 288 287 287 287 286 285 285 284 283 283 282 281 278 279 280 280 281 280 280 280 280 280 280
294 294 294 293 293 293 293 293 294 294 293 293 292 292 291 291 291 291 291 289 286 286 286 286 285 285 284 284 283 282 281 279 277 279 280 279 278 279 280 280 281 281 281
294 294 294 293 293 293 293 293 293 293 292 291 292 291 290 289 290 290 289 286 285 285 285 285 284 284 283 282 282 281 280 277 278 279 278 279 279 280 280 281 281 282 282
294 295 294 293 293 293 293 293 293 292 292 292 291 291 290 288 289 289 288 285 285 285 284 284 284 283 283 282 282 280 278 277 278 278 279 278 278 279 280 280 280 281 281
294 293 293 293 292 292 292 292 291 291 292 291 290 289 289 288 287 287 288 287 286 285 283 284 284 283 282 282 280 279 278 278 278 278 279 278 278 278 278 279 279 280 281
293 293 292 292 293 292 292 290 289 289 290 290 289 288 287 287 287 287 287 287 287 285 284 283 282 282 282 282 280 280 279 279 279 279 279 278 278 277 278 278 279 279 280
293 292 292 292 292 292 291 290 289 288 287 287 289 288 288 287 288 288 287 287 287 285 284 283 282 282 281 281 281 281 280 279 279 279 279 278 277 277 278 278 278 279 280
292 292 292 292 292 291 290 290 288 288 287 287 287 287 288 287 287 287 286 286 286 285 285 283 282 282 282 281 282 281 281 280 280 279 278 277 277 277 277 277 277 279 280
292 292 292 291 291 291 290 290 288 288 287 287 286 286 286 286 286 286 285 285 285 285 284 283 282 282 281 281 282 282 281 280 280 279 278 277 277 277 276 276 277 279 279
292 292 292 291 291 291 290 290 289 288 288 287 287 287 287 287 286 286 285 284 283 283 283 282 281 281 281 281 281 282 281 281 280 279 278 278 277 277 276 276 277 278 278
292 292 292 292 291 291 291 290 288 289 288 288 287 287 287 287 286 286 285 285 284 283 283 282 282 281 281 280 282 282 281 281 279 278 278 278 276 277 276 276 276 276 277
291 292 292 292 292 291 291 290 290 288 287 287 287 287 287 287 286 286 285 285 284 283 283 282 282 282 281 281 281 282 281 280 279 278 277 277 277 277 277 276 276 276 276
291 291 291 291 291 291 291 290 289 288 288 287 287 287 287 287 287 286 286 285 284 283 282 282 282 282 282 282 282 282 282 281 280 279 278 277 277 276 276 276 276 276 276
287 288 288 289 290 290 289 288 288 289 288 288 287 287 287 287 286 286 286 285 284 284 283 282 282 282 283 283 283 283 282 281 280 279 278 278 277 276 276 276 276 276 276
286 286 287 286 285 287 288 288 287 286 286 285 285 285 286 286 287 286 285 286 285 284 284 283 283 283 283 283 283 283 282 281 280 279 278 278 277 276 275 276 276 276 275
281 283 284 284 284 285 287 287 286 286 286 285 286 286 286 286 286 286 286 286 286 286 285 285 284 284 284 284 283 283 282 281 280 279 278 278 277 276 275 276 276 275 275
280 280 282 283 284 285 286 286 286 286 285 284 284 283 284 285 286 285 285 285 285 285 285 285 285 284 284 284 284 283 283 282 281 280 278 277 277 276 275 275 275 275 275
279 281 282 283 284 283 282 281 281 280 279 279 279 279 279 279 281 280 281 281 284 285 284 285 285 285 284 284 284 283 283 282 281 280 279 278 277 275 275 275 275 275 274
276 275 276 277 278 278 279 278 277 277 276 276 276 276 276 275 275 275 275 277 278 280 283 284 284 285 285 284 284 283 283 282 281 280 278 277 276 274 274 274 274 274 274
273 272 272 272 273 274 274 274 274 273 273 273 272 272 272 272 272 271 271 272 274 275 278 281 284 283 285 284 284 283 282 282 281 279 278 277 275 273 273 274 274 274 274

GFSGL_925_thetae_060.txt.gz
Theta_e
311 309 307 305 305 305 303 302 300 299 298 297 297 296 296 296 295 295 295 294 293 292 291 292 292 293 292 291 291 290 289 286 284 284 283 283 282 282 281 281 282 282 282
307 306 306 306 304 302 300 300 299 297 297 297 296 296 296 295 295 295 294 293 292 292 290 291 291 291 291 290 289 287 285 284 283 282 282 282 282 281 280 281 281 282 282
306 305 304 303 303 299 299 297 297 297 296 296 296 296 296 295 295 295 294 293 292 292 290 290 291 291 290 289 287 285 284 283 283 282 282 281 280 280 280 281 281 281 282
305 303 302 299 298 298 297 296 295 295 295 295 295 295 295 295 295 294 293 293 293 291 291 291 290 290 288 286 285 284 283 283 283 282 280 280 280 280 280 281 281 281 281
302 300 297 296 296 295 295 294 293 293 294 294 295 295 295 295 294 292 292 292 292 291 290 289 288 287 286 286 285 284 283 283 281 280 279 279 280 280 280 281 280 280 279
296 295 295 294 294 293 294 296 296 293 294 294 295 294 295 294 293 292 292 291 291 290 290 289 287 286 286 285 284 283 283 281 280 279 278 279 279 280 280 279 279 279 280
295 294 294 294 294 297 298 294 293 293 294 294 293 292 293 292 292 291 291 291 290 289 288 286 286 285 285 284 283 283 282 281 280 277 278 279 279 278 278 278 279 279 280
294 294 295 296 298 295 293 293 293 293 293 293 292 291 291 291 291 290 290 290 289 288 286 286 285 285 284 284 283 282 282 282 279 277 279 279 278 279 279 280 280 281 281
294 296 297 296 293 293 293 293 293 293 293 292 292 291 291 291 290 289 289 289 288 286 285 285 285 284 284 283 282 282 282 281 278 278 278 278 278 278 279 279 279 280 280
296 298 298 294 293 293 293 292 292 292 291 291 291 291 291 290 289 288 288 288 287 286 286 285 284 283 283 282 282 282 280 279 278 278 278 279 278 278 277 278 278 279 280
295 293 293 293 293 292 292 292 292 291 289 289 290 290 290 289 288 287 287 287 287 287 286 285 284 283 283 282 282 281 280 279 279 279 278 279 279 278 277 278 278 278 279
293 293 293 292 292 292 292 292 291 290 289 288 287 287 288 288 288 287 287 287 286 287 286 286 285 283 282 282 282 281 280 280 280 279 279 279 279 277 277 277 277 277 278
292 292 292 292 292 292 292 291 290 290 289 288 287 286 286 286 287 288 288 288 287 287 287 286 285 284 282 282 282 281 281 281 281 280 279 279 278 277 277 276 276 278 279
292 292 292 291 291 291 291 291 290 289 289 288 287 286 287 286 286 286 286 286 286 286 286 286 285 284 282 282 282 281 281 281 281 280 279 279 277 277 277 276 276 277 278
292 292 291 291 291 291 291 291 290 290 290 289 288 287 287 286 286 286 286 286 285 285 284 283 283 283 282 282 282 281 281 282 281 280 279 278 278 277 276 276 276 277 277
290 291 291 291 291 291 291 291 291 291 291 290 289 288 287 287 287 287 287 286 285 284 283 283 283 282 282 282 281 280 280 282 281 280 279 278 278 276 277 276 276 276 276
290 290 290 290 290 290 289 289 288 289 290 290 289 288 288 288 287 287 287 286 286 285 284 283 281 282 282 282 281 280 280 282 281 280 279 278 277 276 277 276 276 276 276
284 285 286 288 288 288 288 288 288 288 288 289 290 288 288 287 287 287 287 286 285 284 284 283 282 281 282 282 281 281 281 281 282 280 279 278 277 276 276 276 275 276 275
284 284 285 285 286 286 286 285 286 287 288 288 287 288 287 286 286 286 286 286 286 285 284 283 283 282 282 282 282 282 282 281 282 280 279 278 277 277 276 276 275 276 276
279 279 280 281 283 283 283 284 284 286 287 287 287 285 285 285 285 285 285 286 286 285 284 284 284 283 282 282 282 282 282 282 282 280 280 278 278 277 276 276 276 276 276
279 279 279 280 280 281 282 283 284 285 286 285 285 285 285 284 284 284 285 285 286 285 284 285 284 283 283 283 283 282 282 283 282 281 280 278 278 277 276 275 275 276 275
277 278 278 279 281 282 281 282 284 284 283 282 281 281 280 281 282 283 284 284 284 285 285 285 285 284 284 284 283 283 283 283 283 282 280 279 278 277 276 275 275 275 275
275 274 275 276 277 277 278 278 278 278 277 277 277 276 276 277 276 276 276 277 278 280 281 284 285 284 285 285 284 284 283 283 283 282 281 279 278 277 276 275 275 275 275
272 271 271 272 272 273 274 274 274 274 274 273 273 273 273 272 272 272 272 273 275 276 278 279 281 284 284 284 284 284 284 284 283 283 281 280 278 277 276 275 274 274 274
270 269 269 269 269 270 270 271 271 270 270 270 270 270 270 270 269 269 269 269 270 272 274 275 277 279 281 283 284 284 284 284 283 283 281 280 278 277 276 274 274 274 274
268 267 267 267 267 267 267 269 268 267 267 267 267 268 267 267 268 267 267 267 267 269 271 272 273 275 280 282 283 283 283 283 283 282 281 279 278 276 275 274 273 274 273

GFSGL_925_thetae_063.txt.gz
Theta_e
313 311 309 306 305 305 305 303 302 301 298 297 297 296 296 296 295 295 295 295 294 293 292 291 290 291 292 291 291 291 290 289 286 285 284 283 283 282 281 280 280 280 281
311 309 306 305 305 306 309 301 299 298 297 296 296 296 296 296 295 295 295 294 293 293 292 291 290 291 291 291 290 289 287 285 283 282 282 282 282 281 279 280 280 280 281
306 304 305 305 308 302 298 298 297 297 296 296 296 296 296 295 295 295 295 294 293 292 292 291 290 290 290 290 289 287 285 284 283 282 282 281 280 279 279 280 280 281 281
305 306 306 305 301 299 298 297 296 295 294 295 294 294 295 295 295 295 294 293 292 292 292 291 291 290 289 289 288 285 284 283 283 282 281 280 279 278 279 279 280 280 279
306 306 304 300 298 297 295 294 294 294 294 293 294 294 294 294 295 294 293 292 292 291 291 290 290 289 289 286 286 285 284 283 282 281 280 279 278 279 279 279 279 278 279
303 300 297 296 294 294 296 296 295 294 293 293 294 294 293 293 294 293 292 292 291 290 290 290 289 288 287 287 286 284 284 283 281 280 279 278 278 278 279 278 278 278 279
297 295 294 294 295 297 296 294 293 293 293 293 293 292 292 291 291 292 292 291 290 290 290 289 288 286 285 285 284 284 283 282 281 280 278 277 278 279 278 278 278 279 280
294 294 295 296 297 295 293 293 293 293 293 293 292 292 291 291 291 291 290 289 289 289 288 287 286 285 285 285 284 282 282 281 281 280 277 278 278 279 279 279 279 279 279
295 296 297 297 294 293 293 292 292 292 292 292 291 291 291 291 291 290 289 288 288 288 288 286 285 285 285 284 283 282 281 282 281 278 278 279 279 279 278 278 277 278 278
297 297 297 294 294 293 293 292 292 292 291 291 290 289 289 290 290 289 288 288 288 288 287 285 285 285 284 283 282 282 281 282 280 279 279 279 279 279 278 277 277 277 278
296 295 294 293 292 292 292 292 292 291 291 290 290 289 288 288 289 289 288 287 287 287 287 286 287 286 284 283 282 282 282 281 280 279 279 279 279 279 278 277 277 276 277
294 293 292 292 292 292 292 292 291 291 290 290 289 289 288 287 286 286 287 287 287 287 287 286 286 286 285 283 282 282 282 281 281 281 280 280 279 279 278 277 276 276 277
292 292 292 292 291 291 291 291 291 291 290 290 289 289 289 289 287 286 286 286 287 287 287 287 287 286 286 284 283 282 282 281 281 281 281 280 279 279 277 277 276 276 277
292 291 291 291 291 291 291 291 291 291 290 289 288 287 288 289 288 287 286 286 286 286 286 286 285 285 285 284 283 282 282 282 280 281 281 280 279 278 277 276 276 276 276
290 290 290 290 290 290 290 290 289 290 289 289 289 289 287 287 289 288 287 286 286 286 286 285 284 283 282 282 282 282 282 282 280 281 281 280 279 278 277 276 276 276 276
286 285 284 285 285 286 286 286 286 287 287 288 289 289 288 288 288 288 287 287 286 286 285 284 283 281 282 282 282 282 282 281 280 281 281 280 279 278 277 276 276 275 275
282 283 283 283 284 284 285 285 285 285 285 285 286 287 288 288 287 287 288 287 287 287 285 284 283 281 281 282 282 281 281 281 280 281 282 280 278 278 276 276 276 275 275
279 279 280 280 280 281 282 283 284 283 282 283 284 285 286 287 287 287 287 286 286 286 286 284 284 283 282 281 282 281 281 281 281 281 281 280 278 277 276 276 276 275 275
278 279 279 279 279 279 280 280 281 281 282 282 284 285 286 285 285 285 286 285 285 285 285 284 284 283 283 283 282 282 281 281 281 281 281 280 279 277 277 276 276 275 275
278 278 278 278 278 279 280 280 280 281 282 283 284 283 282 283 283 283 283 284 284 284 285 285 284 284 283 283 283 282 282 281 281 281 281 280 279 277 277 276 275 275 275
276 276 275 276 276 277 277 278 278 278 278 278 278 277 278 279 277 277 277 277 278 279 281 283 284 284 283 283 282 282 282 282 282 282 282 281 279 278 277 276 275 275 275
273 273 273 273 273 273 274 274 274 274 274 274 274 274 274 273 273 272 272 272 273 274 275 277 279 281 283 283 283 282 282 282 283 282 282 282 280 278 277 276 275 275 275
272 271 271 271 271 271 271 271 270 270 270 270 270 271 271 270 270 270 270 270 270 271 273 274 275 277 279 280 283 283 282 283 283 283 282 282 280 278 277 276 275 275 275
270 269 269 268 268 268 268 268 268 267 267 267 268 268 268 268 268 268 268 268 268 268 270 271 272 273 275 278 280 281 283 283 283 283 283 282 280 278 277 276 275 274 274
268 267 267 266 266 266 266 266 266 265 265 265 265 266 266 266 266 266 266 266 266 266 267 268 270 271 272 275 277 281 281 283 283 283 283 282 281 279 277 276 275 274 274
266 266 265 265 265 264 264 264 264 263 263 263 264 264 264 264 265 265 264 264 264 265 266 266 267 269 271 273 274 279 281 282 282 282 283 282 280 278 277 276 274 274 274

GFSGL_925_thetae_066.txt.gz
Theta_e
324 323 321 315 311 309 306 306 306 307 308 301 299 297 296 296 295 295 295 295 294 294 293 292 291 290 290 292 291 290 290 289 288 288 285 284 283 283 282 280 279 280 280
314 311 308 307 305 305 305 305 306 302 300 298 297 296 296 295 295 295 295 294 294 293 293 292 292 291 290 291 290 290 289 289 287 283 283 283 283 282 281 279 279 280 280
308 306 305 305 305 306 309 309 301 299 297 296 296 295 295 295 295 295 295 294 294 293 292 292 292 291 290 290 290 289 288 286 284 283 282 282 281 281 279 278 279 279 279
306 306 305 305 307 307 304 299 297 296 296 295 295 294 294 294 294 294 294 294 294 293 292 291 291 291 290 290 289 289 288 285 283 282 282 281 281 280 278 279 279 279 278
305 305 306 306 303 298 296 296 294 293 294 294 294 294 294 293 293 293 294 294 293 292 291 290 290 290 289 288 288 287 286 284 283 282 281 280 280 278 278 279 278 278 278
305 306 304 299 296 295 294 295 295 295 293 293 293 293 293 292 291 291 293 292 292 291 290 290 289 289 289 288 287 286 286 284 283 282 281 279 279 277 278 278 278 278 278
305 300 296 294 294 296 296 295 293 293 293 293 293 292 292 291 291 291 291 291 291 291 290 289 289 288 287 286 285 285 284 283 283 282 281 280 278 278 278 278 278 278 279
296 294 294 295 297 296 294 294 293 292 292 292 292 292 291 290 290 290 291 291 290 290 289 288 288 287 286 285 285 284 284 283 282 281 281 279 278 278 279 279 278 278 277
294 295 297 298 295 297 295 293 292 292 292 292 291 291 289 289 289 288 290 289 289 288 288 287 288 286 286 285 284 284 283 282 282 281 280 279 279 279 279 279 278 276 277
297 297 297 296 295 294 293 292 292 291 291 291 291 290 290 289 289 288 288 289 288 287 287 287 287 286 286 285 284 283 283 282 282 281 279 278 279 279 278 278 277 276 276
297 296 294 293 293 292 292 291 291 291 291 291 290 290 290 289 289 289 287 286 287 286 285 286 286 286 286 286 284 283 283 282 281 281 280 279 279 279 279 279 277 276 276
293 293 292 292 291 291 291 291 291 291 291 290 290 290 290 290 289 289 288 286 286 286 285 285 286 286 286 286 286 284 283 282 281 281 281 280 280 280 279 278 277 276 276
292 291 291 291 291 290 290 290 290 290 289 289 287 287 287 288 288 289 289 288 287 286 285 286 286 286 286 286 285 284 283 282 282 281 280 280 281 280 279 278 277 276 276
290 289 289 288 287 286 286 285 285 285 286 286 286 286 287 287 287 287 288 288 287 286 286 286 286 285 285 285 284 284 283 282 282 282 281 280 281 280 279 278 277 276 275
286 284 283 282 282 282 282 282 283 284 285 285 286 286 286 286 285 287 287 286 286 287 286 285 285 284 284 284 283 283 282 282 282 281 281 280 281 280 279 278 276 276 275
282 281 280 280 280 280 281 281 282 282 282 283 282 282 282 283 284 286 286 287 287 286 285 285 284 283 283 282 281 282 282 281 282 282 281 280 280 280 279 278 276 276 275
279 279 279 279 279 279 279 280 280 280 280 280 281 281 282 283 284 285 286 286 287 286 286 285 283 284 283 282 281 281 281 282 282 281 280 280 281 280 278 277 276 276 275
279 278 278 279 278 277 278 279 279 280 280 280 280 280 280 280 282 284 285 285 285 285 285 285 285 284 283 282 282 281 281 282 281 281 281 280 281 280 278 277 276 276 275
277 277 277 277 277 278 278 277 277 277 277 277 277 277 277 278 278 278 279 279 281 283 284 284 285 284 284 283 282 282 281 281 282 281 281 280 281 280 278 277 276 276 275
276 275 275 275 275 275 275 275 275 274 275 274 274 274 273 274 273 273 273 273 273 273 274 275 278 281 283 283 283 282 281 281 281 281 281 281 281 280 278 278 276 276 275
273 273 273 273 273 273 272 272 272 271 272 271 271 271 271 271 271 270 270 269 269 270 270 271 272 274 277 279 282 282 281 281 281 282 281 281 280 280 279 277 277 275 275
272 272 271 271 271 270 270 270 269 268 268 268 268 268 268 268 268 268 268 268 268 268 268 269 270 271 271 273 276 278 281 281 281 281 282 281 281 280 279 277 276 275 275
271 270 270 269 269 268 268 268 267 266 266 266 266 266 266 266 266 267 266 266 266 267 267 267 268 269 270 271 273 274 276 280 281 281 281 282 281 280 279 277 276 275 274
269 268 268 267 267 266 266 266 265 265 264 264 264 264 264 264 264 265 265 265 265 265 266 266 266 267 268 269 271 272 274 277 279 280 282 281 281 281 279 277 276 275 274
267 266 266 265 265 264 264 264 263 263 263 263 263 263 263 263 263 263 263 263 263 263 264 265 265 266 267 268 270 271 273 275 279 280 281 281 281 281 279 277 276 274 274
266 266 265 264 264 264 263 262 262 262 262 262 262 262 262 262 262 262 262 262 262 263 263 264 265 266 266 267 268 270 272 274 279 281 280 281 281 280 279 277 276 275 274

GFSGL_925_thetae_069.txt.gz
Theta_e
322 322 323 322 319 313 309 307 307 304 307 308 308 302 298 296 296 296 295 295 295 295 294 294 293 293 292 292 291 291 291 291 291 290 290 288 286 285 285 284 282 281 282
319 319 315 315 311 308 307 305 306 308 310 306 300 298 296 296 295 295 295 295 295 295 294 293 293 292 292 292 291 291 291 291 291 290 290 287 285 285 284 283 282 281 281
314 314 312 309 307 306 305 306 308 307 303 299 297 296 296 295 295 295 295 295 295 294 294 294 293 292 292 291 291 290 290 289 288 288 288 285 285 284 283 282 281 281 281
311 309 306 305 304 306 307 306 302 299 297 296 296 295 294 294 294 294 294 294 294 293 293 293 292 291 291 291 291 290 289 288 288 287 286 286 285 284 282 282 281 281 281
307 306 304 305 307 306 300 296 297 296 295 294 295 294 293 293 293 292 292 293 294 293 293 292 291 291 290 289 289 289 288 288 287 286 286 285 285 284 283 281 281 281 281
306 304 306 307 300 296 296 296 294 295 295 296 294 293 293 292 292 291 291 292 292 292 292 292 291 290 289 289 289 288 288 288 287 286 285 285 285 284 282 280 280 281 281
304 306 303 296 294 294 296 294 295 297 299 293 293 292 292 292 291 290 290 291 291 291 291 291 290 289 288 288 287 287 285 285 285 285 285 285 284 283 280 280 280 281 280
302 297 294 295 296 295 296 298 298 294 292 293 292 292 291 291 289 289 289 288 290 291 290 290 290 289 288 287 286 286 285 285 284 283 283 283 283 281 280 280 280 280 280
294 294 297 298 296 298 299 295 293 292 292 291 291 291 291 290 290 289 289 289 289 289 289 289 289 288 288 287 285 285 285 285 283 283 282 282 281 279 279 280 280 280 280
296 297 297 297 297 295 293 292 291 291 291 291 291 290 290 290 290 290 289 289 288 288 288 287 287 287 287 287 286 285 285 285 284 282 282 281 280 280 280 279 280 280 280
297 296 294 293 292 292 291 291 291 291 290 290 290 290 290 290 290 289 289 288 288 288 288 287 286 285 287 286 286 285 285 285 284 282 282 282 281 280 280 280 280 280 279
293 292 291 291 291 291 290 290 290 289 289 288 287 287 287 287 287 286 286 287 287 287 287 287 286 285 285 286 286 285 286 285 283 283 282 282 282 281 281 281 280 279 279
291 290 290 289 288 287 286 286 285 285 285 285 286 286 286 286 285 285 285 285 285 286 286 287 286 285 285 285 285 286 285 285 283 283 283 282 282 282 281 280 279 279 278
288 287 286 285 284 283 283 283 283 284 284 284 284 284 284 283 283 283 284 284 285 285 286 286 286 285 285 285 284 285 284 285 284 284 283 283 282 281 280 281 280 279 279
284 283 282 282 282 282 282 282 282 282 281 282 282 282 282 283 283 282 283 284 285 285 286 286 285 285 284 284 284 284 284 284 284 284 283 282 281 281 281 280 279 279 279
282 281 281 281 281 281 281 281 280 280 280 280 281 280 280 280 280 281 281 283 284 285 286 286 285 285 285 285 284 283 284 284 284 283 282 282 282 281 281 280 279 279 279
280 280 280 279 279 279 280 280 280 280 279 278 278 278 276 277 278 278 278 281 283 284 286 286 286 285 285 285 285 283 284 284 283 283 282 282 281 281 280 280 280 279 279
279 277 278 278 279 279 279 278 278 278 277 277 276 275 274 274 275 275 275 277 277 277 277 278 280 284 285 285 285 284 284 283 282 282 282 282 281 281 281 280 280 279 278
278 277 276 277 277 277 277 276 276 275 276 275 275 274 273 272 273 273 272 273 273 274 274 274 275 276 277 279 284 283 283 283 282 282 282 281 281 281 281 280 280 278 277
276 274 274 275 275 275 274 274 274 273 274 273 272 271 271 271 272 272 271 271 271 271 271 271 272 272 273 274 276 278 283 283 282 281 281 281 281 280 281 280 279 279 278
273 273 273 273 273 272 272 272 271 271 271 270 270 269 267 269 269 270 270 269 269 269 269 269 269 270 271 272 272 273 275 279 282 281 281 280 280 280 280 280 279 277 277
271 271 271 271 270 270 269 269 270 268 268 268 268 267 266 268 268 267 268 268 267 267 267 267 267 268 268 269 269 270 272 274 276 280 280 280 280 279 279 279 278 277 277
270 269 269 269 268 267 267 267 267 267 266 266 266 265 265 266 266 266 266 266 265 265 265 265 265 266 266 266 267 268 269 271 271 272 275 280 279 279 278 278 278 277 276
268 267 267 266 266 265 265 265 265 264 263 264 264 264 264 264 264 264 264 264 263 264 264 263 264 264 265 265 265 266 267 268 268 270 272 276 280 279 278 278 277 276 276
267 266 265 265 264 264 263 263 263 262 262 262 262 262 262 262 263 263 262 262 262 262 262 263 263 263 263 264 265 266 267 269 270 270 272 275 279 279 278 278 277 276 275
266 266 265 264 264 263 263 262 262 261 261 260 261 260 260 261 261 261 261 261 261 261 261 262 263 264 265 264 265 266 267 269 271 271 272 275 278 278 277 277 277 275 274

GFSGL_925_thetae_072.txt.gz
Theta_e
327 325 324 324 323 321 320 317 314 310 307 305 305 309 308 302 300 300 300 299 298 298 298 297 297 296 296 295 295 294 293 293 293 293 292 292 292 291 289 289 288 286 285
327 325 324 323 319 315 311 310 309 307 305 308 309 306 302 300 300 299 299 298 298 298 297 297 297 296 296 295 294 294 293 293 292 292 292 292 291 290 288 288 287 286 284
324 320 316 315 313 310 308 307 306 306 307 306 302 301 300 299 299 299 298 298 297 297 297 296 296 296 295 295 294 293 293 292 292 292 291 291 290 289 288 287 286 285 284
317 314 312 310 308 307 306 306 307 307 302 298 299 299 299 298 298 298 297 296 296 296 296 295 295 295 294 294 293 292 292 292 291 290 290 290 289 289 288 287 286 285 284
312 309 308 306 306 306 307 307 305 298 298 298 298 298 298 298 297 296 295 295 294 294 294 295 295 294 293 293 291 291 291 290 290 289 290 289 289 288 287 287 286 285 284
311 309 306 303 306 305 303 298 297 297 296 297 298 300 298 296 294 292 292 293 293 293 293 293 293 293 293 292 290 290 289 289 289 290 290 289 288 288 287 286 285 284 285
307 304 302 304 301 297 296 296 295 297 299 300 299 296 295 295 294 292 290 290 291 291 292 292 292 292 292 291 291 290 289 288 288 288 289 288 287 287 286 285 284 284 284
305 301 299 296 296 296 297 297 299 301 298 297 296 296 295 294 293 291 290 290 291 291 292 292 292 292 291 291 291 290 289 288 287 286 286 286 286 286 285 284 283 283 283
300 296 295 296 297 299 299 300 299 297 296 295 294 294 293 293 292 291 290 291 291 292 292 291 291 291 291 290 290 289 289 288 287 287 286 285 284 284 283 282 282 282 283
296 297 298 299 298 299 298 296 295 294 294 293 293 293 293 292 292 291 290 290 290 291 291 291 291 290 290 288 288 289 288 288 287 287 286 284 283 283 282 281 282 282 282
298 296 296 297 297 295 294 294 293 293 293 293 292 291 290 290 289 288 287 287 287 287 287 287 289 289 289 288 286 287 287 288 287 287 286 285 285 284 283 282 282 282 282
297 296 295 294 292 293 293 293 292 292 290 289 288 288 288 288 287 286 285 284 284 285 285 286 286 287 287 288 287 285 286 286 286 287 287 286 285 284 284 283 283 283 282
294 293 292 291 290 289 290 289 288 287 287 287 287 287 286 286 285 285 284 284 284 285 285 286 285 285 285 286 286 286 285 286 286 287 287 286 285 285 284 284 283 282 282
291 290 289 287 287 286 286 286 286 286 286 285 285 285 285 284 284 282 282 283 283 284 286 286 286 286 286 286 287 286 285 285 286 287 287 286 285 285 284 283 283 283 282
288 286 286 286 285 285 285 284 284 283 282 283 283 283 282 282 280 279 279 279 281 283 284 286 287 288 288 287 287 286 286 285 285 286 286 286 286 285 284 283 283 282 282
286 285 284 285 284 284 284 284 281 280 280 280 279 278 278 278 277 277 277 277 279 280 284 285 286 287 287 287 287 287 286 286 285 285 285 285 285 285 284 283 283 282 282
284 283 282 283 283 283 283 283 283 282 280 278 277 277 275 275 275 276 275 276 278 279 281 281 282 282 283 283 287 287 287 286 285 285 286 285 284 284 284 283 283 282 282
280 280 282 282 282 282 281 281 281 281 280 280 278 276 275 274 274 275 274 276 277 278 278 278 278 278 279 280 281 281 285 286 286 285 285 285 284 284 284 283 282 282 282
280 280 280 280 279 279 279 279 279 278 278 278 277 277 275 273 274 274 274 275 275 275 275 275 275 275 276 277 277 278 279 281 284 285 285 284 284 284 283 283 283 282 281
278 276 277 278 278 278 277 277 277 277 276 276 276 275 273 272 274 274 274 274 273 273 273 273 273 273 274 274 275 275 276 278 279 283 284 283 284 283 283 283 283 282 281
277 276 274 276 276 276 275 276 276 275 274 274 274 273 269 269 273 273 272 272 272 271 271 271 271 271 272 272 273 273 274 275 276 278 278 283 283 283 283 283 283 282 281
274 274 274 274 274 274 273 273 273 273 273 272 272 272 269 270 271 271 271 270 270 270 269 270 269 270 270 270 270 270 271 272 274 274 274 276 279 283 283 283 282 282 281
273 272 273 272 272 271 271 271 271 271 270 270 270 270 270 269 269 269 269 268 269 268 268 268 268 268 268 269 269 269 269 270 271 271 271 272 275 278 282 283 282 282 281
271 271 271 270 270 269 270 269 269 269 268 268 268 268 268 268 268 268 267 267 267 267 266 266 266 266 267 267 267 268 268 268 268 268 268 270 271 275 280 282 282 281 281
270 270 270 269 269 269 268 269 268 268 267 267 267 267 267 266 266 266 266 266 265 265 265 265 265 266 266 265 265 265 266 266 265 265 266 269 271 272 275 282 282 281 280
270 269 269 268 268 268 268 267 267 266 266 265 265 265 265 265 265 265 265 264 265 264 263 265 265 265 265 265 265 266 265 264 264 264 265 267 269 272 275 281 281 280 279

GFSGL_925_thetae_078.txt.gz
Theta_e
331 332 332 331 330 328 328 326 324 321 320 318 315 312 310 308 307 308 309 305 304 303 302 302 301 300 300 300 299 298 298 298 297 296 296 296 295 295 294 294 294 293 293
331 332 332 330 328 327 326 324 323 322 319 315 314 311 309 306 306 306 303 303 302 302 302 301 301 301 300 299 299 299 298 298 297 296 296 296 295 295 294 293 292 292 292
331 331 329 327 327 326 325 323 321 317 314 313 312 310 307 308 305 302 302 302 302 302 301 301 300 299 298 298 298 298 298 297 297 296 295 295 294 294 292 291 291 291 291
330 327 324 324 323 320 318 316 314 313 311 310 309 307 308 306 304 302 302 301 301 300 299 298 297 297 296 296 296 297 297 297 295 294 293 293 292 292 291 291 290 290 290
325 320 316 315 315 314 315 313 312 310 309 308 307 307 305 302 301 301 301 301 297 296 295 295 295 295 295 295 294 294 294 295 294 294 293 292 291 291 290 290 291 290 290
314 311 312 311 311 310 309 308 309 308 307 307 306 303 300 300 301 300 299 297 295 293 293 293 293 293 293 293 293 293 293 293 293 293 293 292 291 290 290 290 290 289 288
311 310 309 309 307 306 306 306 306 306 304 302 300 301 302 302 301 297 296 295 293 291 292 292 293 293 294 294 294 294 293 293 293 292 292 291 291 290 290 289 289 288 288
309 308 306 305 303 304 305 306 304 300 299 300 301 302 300 299 297 295 293 293 292 293 293 293 293 293 292 291 290 289 289 290 291 292 291 291 290 290 289 288 288 288 286
307 305 304 303 303 303 301 301 300 301 302 302 300 299 297 295 294 293 293 292 292 292 291 290 289 289 288 287 287 286 287 287 288 288 290 290 289 289 289 288 287 286 285
306 305 304 303 301 301 300 301 303 303 301 299 296 295 295 294 292 291 290 289 287 287 287 286 286 286 287 287 287 287 287 287 287 287 288 288 288 288 288 287 287 285 285
306 304 301 300 300 302 302 302 299 297 296 295 295 295 293 291 290 289 288 286 285 285 284 284 285 286 286 286 286 285 286 286 286 286 286 287 287 288 288 287 286 285 284
301 301 302 302 301 300 298 296 296 295 295 294 292 289 290 290 289 287 285 284 283 282 282 282 283 283 282 283 284 286 287 288 286 286 286 286 286 288 288 288 286 285 285
302 301 299 297 297 297 296 295 293 292 291 291 289 289 289 288 287 285 284 282 281 281 280 281 281 281 284 286 287 287 288 288 287 286 286 286 286 287 288 287 287 286 286
299 298 296 294 293 292 291 290 290 290 289 288 288 288 288 286 285 284 282 278 279 278 278 278 279 283 284 283 283 284 285 285 287 287 286 286 287 287 287 288 287 286 286
297 294 292 290 290 289 289 288 288 287 286 286 286 284 284 283 281 279 277 277 277 277 277 279 280 282 281 281 281 281 282 282 283 285 286 286 287 287 287 287 287 286 286
292 290 289 288 288 288 287 285 284 283 283 281 280 279 280 279 278 276 277 277 277 277 278 279 281 280 279 279 279 279 279 279 280 280 282 287 287 287 287 287 286 286 285
287 287 286 286 286 286 286 286 285 283 282 282 281 280 280 278 277 276 276 276 277 278 279 279 279 278 278 277 277 277 277 277 278 279 279 281 284 286 286 286 286 286 285
285 286 285 285 285 285 284 284 284 284 284 283 281 280 278 277 276 276 276 276 277 277 277 277 277 276 276 275 275 275 275 275 276 276 277 278 280 280 286 286 285 285 285
283 283 283 282 281 281 282 282 282 282 281 281 280 280 279 277 275 275 276 277 277 276 276 276 275 274 274 274 273 273 273 274 274 274 275 276 276 277 278 285 286 285 285
279 279 280 280 280 280 280 280 280 280 280 279 279 279 278 277 274 273 274 276 275 275 274 273 273 273 273 273 272 272 272 272 272 272 273 273 274 274 275 278 280 285 284
279 278 278 279 279 278 278 278 278 278 278 278 277 277 275 274 273 273 275 274 274 273 272 272 272 271 271 271 271 270 271 271 270 271 272 271 271 271 272 274 277 283 284
277 277 277 277 276 277 276 275 276 276 276 276 275 274 274 274 274 273 273 272 272 271 271 270 270 269 269 269 269 268 269 269 269 270 269 269 269 269 270 272 273 275 284
275 276 276 276 275 275 274 275 275 274 274 273 273 273 272 272 272 271 271 270 270 270 269 269 268 268 268 267 267 268 268 268 268 267 267 267 268 268 268 269 272 274 275
275 275 275 275 275 274 274 274 273 273 273 272 272 271 271 270 270 269 269 269 269 268 268 267 267 266 266 266 267 267 267 267 267 267 267 267 266 266 267 268 270 272 274
274 274 274 274 273 273 273 273 272 272 271 271 270 270 268 268 268 268 267 267 267 266 266 266 265 265 266 265 265 266 266 267 266 266 266 265 265 265 266 268 269 271 273
273 273 272 272 272 272 271 271 270 270 270 269 268 267 267 267 266 266 266 265 265 265 264 264 264 264 264 264 265 266 266 266 266 267 267 266 266 266 266 267 268 270 271

GFSGL_925_thetae_081.txt.gz
Theta_e
327 329 331 330 330 330 330 327 325 323 322 320 318 317 315 311 313 311 309 308 308 305 304 304 303 302 301 301 300 300 299 299 297 297 297 297 297 296 296 295 295 294 293
329 330 332 331 330 330 330 327 324 323 322 320 318 316 313 314 311 309 308 308 305 303 304 302 302 301 301 301 300 300 299 299 298 296 296 297 296 295 294 294 293 292 291
330 331 331 331 330 328 328 326 324 323 320 318 316 315 314 311 308 308 307 307 304 303 302 302 301 300 299 298 297 297 297 297 297 297 295 295 294 293 293 292 292 291 291
330 330 330 329 329 327 327 325 323 320 320 317 315 313 311 309 308 308 306 303 302 302 302 300 298 297 296 296 296 296 296 296 296 295 295 294 293 293 292 291 291 290 290
329 327 326 327 325 324 321 323 321 320 316 314 312 311 308 308 307 305 302 302 301 298 297 295 295 294 294 293 293 293 293 293 293 293 292 292 292 292 292 292 290 290 290
320 318 318 318 319 318 316 315 313 311 312 311 309 307 307 306 303 302 302 299 298 296 295 292 291 292 292 292 293 294 293 291 291 291 290 290 291 291 292 292 290 288 288
314 312 313 312 312 311 310 309 310 309 308 307 307 307 303 301 301 299 297 297 295 294 292 291 291 293 293 292 291 291 290 289 288 287 289 290 290 291 291 290 290 289 288
312 312 312 312 310 308 308 307 306 306 307 306 303 301 301 301 297 296 295 294 293 292 293 293 292 291 290 288 287 287 286 286 286 286 286 287 287 288 289 289 289 289 288
309 309 308 307 305 305 304 305 306 304 301 300 300 300 299 296 295 294 293 293 292 292 291 290 288 287 286 285 286 286 287 286 286 285 286 286 286 286 288 288 287 286 286
306 305 306 305 304 304 305 303 301 300 301 300 297 296 295 293 293 293 292 290 288 287 285 285 284 283 284 285 285 283 283 284 284 286 286 286 286 285 286 286 287 286 285
306 305 304 303 302 301 301 301 302 302 299 296 294 292 292 292 290 289 288 287 286 285 284 282 281 281 281 281 283 285 285 286 286 286 286 286 285 285 285 286 287 287 286
305 302 301 301 301 301 302 300 298 296 295 294 293 290 289 288 288 288 286 285 284 282 280 280 279 279 279 282 284 284 284 284 284 285 286 285 285 285 285 286 286 287 287
302 301 301 301 301 299 296 295 295 295 295 292 291 290 288 287 285 284 284 283 281 279 278 278 278 278 282 282 281 280 280 282 282 282 284 286 286 285 285 286 286 287 287
299 298 297 296 293 293 292 291 290 291 290 289 289 288 287 285 284 283 282 280 278 277 277 277 278 280 282 280 279 278 279 279 279 280 279 280 282 285 286 286 287 286 286
294 292 291 290 289 288 289 288 289 288 288 287 286 286 286 284 283 281 279 277 278 278 277 278 279 280 279 278 277 277 277 277 277 277 278 278 279 281 285 286 287 286 286
289 288 288 288 287 286 286 285 284 283 283 283 281 280 280 280 279 278 278 277 277 277 278 278 278 278 277 276 276 275 275 275 275 275 275 276 277 279 279 285 286 286 286
287 286 286 286 285 286 286 286 284 283 284 282 282 281 280 279 278 277 277 277 277 278 277 277 276 275 275 275 274 274 274 273 273 274 273 274 275 276 277 277 284 286 285
285 286 286 285 284 284 284 284 283 283 283 282 281 281 280 278 277 276 276 277 277 277 276 276 275 274 274 273 273 273 272 272 272 272 271 272 273 274 274 275 276 284 285
284 283 283 282 281 281 281 281 281 281 281 281 280 280 279 277 276 275 274 275 276 275 275 274 273 273 272 272 271 271 271 271 271 270 270 271 271 271 272 272 273 275 278
281 281 280 280 280 280 280 279 279 279 279 279 278 278 277 275 274 273 273 274 273 273 272 272 271 271 271 270 270 269 269 269 269 269 269 270 269 269 270 270 271 273 275
279 278 278 279 278 278 278 277 277 276 276 276 276 275 274 274 274 273 273 272 272 271 271 270 270 269 269 269 268 268 268 268 268 268 268 267 267 267 268 269 269 270 274
277 277 277 276 276 276 275 275 275 275 275 274 273 273 273 272 272 271 271 270 270 270 270 269 268 268 267 267 267 267 267 267 267 267 266 267 267 267 267 267 267 269 271
275 275 275 275 275 274 274 274 274 273 273 273 272 271 271 270 269 269 269 269 268 268 268 267 267 267 266 266 266 266 267 266 266 266 266 266 266 265 265 265 267 268 269
274 274 274 274 273 273 273 273 272 272 271 271 270 270 269 268 268 268 267 267 266 266 266 266 265 265 265 265 265 265 265 265 266 266 266 266 266 266 266 265 265 267 269
273 273 272 272 272 272 271 271 270 270 269 269 269 268 267 267 267 266 265 265 265 265 264 264 264 263 263 263 263 264 265 265 265 266 266 266 266 266 266 266 266 267 268
272 271 271 270 270 270 269 268 268 269 268 268 267 267 266 266 265 265 264 264 263 263 263 262 262 262 262 262 263 263 264 264 265 265 265 265 265 265 265 265 266 266 267

GFSGL_925_thetae_087.txt.gz
Theta_e
317 318 319 320 321 321 322 322 322 323 324 323 323 323 323 322 321 318 317 315 312 311 312 311 311 309 305 304 305 303 302 299 295 298 298 298 298 298 297 296 296 296 295
319 320 321 322 323 324 325 324 323 323 324 323 323 322 321 322 322 319 316 314 311 310 312 310 309 305 305 305 303 302 301 300 298 296 297 297 296 295 295 295 295 294 294
319 321 321 321 324 325 325 325 325 324 321 321 323 322 321 321 318 318 317 313 311 311 310 308 306 306 304 303 302 301 300 299 297 295 294 294 294 293 292 292 292 292 292
321 321 321 321 322 324 325 325 324 323 323 321 317 318 320 318 316 313 311 310 309 309 309 307 307 304 303 302 300 298 296 295 294 292 291 291 291 292 291 291 290 290 290
322 321 322 323 324 324 325 325 324 325 324 318 316 316 319 315 314 311 310 309 308 308 307 305 303 302 300 297 295 294 293 292 292 291 290 289 289 288 288 288 288 288 288
323 323 324 324 325 326 326 324 322 322 319 318 316 316 315 312 312 311 309 307 307 306 302 301 296 293 293 293 292 292 291 291 290 288 287 287 286 286 286 285 286 287 286
324 322 320 322 322 322 322 322 321 318 318 316 313 312 311 309 308 307 307 307 304 302 301 294 292 291 291 291 290 290 290 289 287 286 286 286 285 285 285 285 285 285 285
318 317 317 318 320 320 319 318 317 315 312 310 309 307 307 307 306 305 304 302 301 296 292 291 291 290 290 289 288 287 286 285 284 283 283 284 284 285 285 285 285 285 285
314 315 315 316 316 314 312 311 309 308 307 306 305 304 305 302 302 301 300 295 292 292 291 290 290 288 285 284 283 282 282 282 284 285 285 284 285 285 285 285 285 285 285
313 313 313 312 311 310 309 307 305 306 305 305 303 302 300 297 295 295 294 292 292 290 288 286 284 283 281 281 280 281 283 283 282 282 282 282 282 283 284 284 285 284 285
311 310 310 309 308 307 305 304 304 303 301 298 295 293 293 292 291 291 290 289 288 286 284 283 281 279 279 279 280 283 282 280 279 279 279 279 280 280 282 282 284 285 285
307 306 304 303 303 302 302 300 299 297 295 291 289 287 287 287 287 287 287 286 284 283 281 279 278 278 278 280 282 281 279 278 277 277 277 278 277 278 278 278 280 282 283
300 298 298 299 297 297 297 295 293 292 290 288 286 285 284 284 284 285 284 283 282 280 278 278 278 278 279 281 280 279 278 277 276 275 276 275 276 275 275 276 277 278 280
295 293 294 295 293 293 293 292 290 289 289 288 287 284 284 283 283 282 281 280 279 278 278 277 278 279 280 279 278 277 276 275 274 274 274 274 273 273 273 274 275 275 277
290 288 287 286 286 286 287 287 288 288 289 288 288 287 285 282 281 280 279 279 278 278 278 278 278 278 277 277 276 275 274 274 273 272 273 271 271 271 271 273 272 273 275
287 286 286 286 287 288 287 284 284 284 284 284 283 283 282 281 280 279 279 279 278 278 277 277 277 276 275 275 274 274 273 272 272 271 271 270 269 270 270 270 270 271 272
287 287 288 288 287 286 285 285 284 283 283 283 283 282 282 281 279 279 278 277 277 277 277 277 275 274 274 274 273 272 271 271 270 270 269 269 268 269 268 268 269 269 270
287 286 284 284 283 283 282 282 282 282 282 281 281 281 280 279 278 276 276 275 275 275 276 275 273 272 272 271 271 270 269 269 268 268 268 268 268 267 267 267 267 267 268
282 281 281 281 280 280 280 279 279 279 279 278 279 279 278 276 275 274 274 274 273 273 272 272 271 271 270 269 269 268 268 267 267 267 267 267 267 266 266 266 265 266 266
280 279 279 278 278 277 276 276 276 276 276 275 275 274 274 274 273 272 272 271 270 270 270 270 269 269 268 268 267 267 266 266 266 266 266 266 266 266 265 265 265 265 265
277 276 276 275 274 274 274 273 273 273 273 273 272 272 271 271 270 269 269 269 268 268 268 268 267 267 267 266 266 265 265 265 266 266 265 265 265 265 265 265 264 264 264
275 274 274 273 273 272 272 272 271 271 270 270 270 269 269 268 268 268 267 267 266 266 266 266 265 265 265 264 264 264 264 264 264 264 264 265 265 265 265 265 264 264 264
273 272 271 271 271 270 270 269 269 269 269 269 268 268 267 267 267 266 265 265 265 264 264 264 263 263 263 263 263 262 262 262 263 263 264 264 264 264 264 264 264 263 263
270 270 269 269 268 268 268 267 267 267 266 266 266 266 266 265 265 264 264 264 263 263 262 262 261 261 261 261 261 261 261 262 262 262 262 263 263 263 263 263 263 263 263
268 268 267 267 266 266 266 265 265 265 265 264 264 264 263 263 263 262 262 261 261 261 260 260 259 259 259 259 260 260 261 261 262 262 262 262 262 263 263 263 263 264 264
267 266 266 265 264 264 264 264 263 263 262 262 262 261 261 261 260 260 260 259 259 259 259 259 259 259 259 259 260 260 260 261 261 262 262 262 262 263 263 263 263 263 263

GFSGL_925_thetae_090.txt.gz
Theta_e
316 316 316 315 315 314 314 314 315 316 317 317 318 320 322 322 322 321 321 321 319 315 313 312 310 311 312 309 308 305 304 301 299 299 299 299 299 299 298 297 296 295 295
316 316 316 315 315 315 315 315 316 317 317 318 320 321 322 321 321 320 321 320 316 313 311 310 309 310 310 309 308 304 304 302 301 297 298 298 298 297 296 295 295 294 294
317 316 316 317 317 317 318 318 318 319 321 322 322 321 321 320 321 322 321 318 318 313 310 310 310 310 307 307 304 304 303 302 300 297 297 296 295 294 293 292 292 292 292
317 317 317 318 318 319 320 321 322 323 323 323 322 323 321 320 319 320 319 314 311 310 310 310 308 308 307 306 305 303 302 301 298 295 293 292 291 292 291 290 290 290 288
317 316 317 317 319 320 320 322 322 323 322 322 322 322 319 317 315 316 316 313 312 310 308 307 306 306 306 304 302 302 300 296 293 291 290 289 289 289 289 288 286 285 285
319 318 318 318 319 320 320 321 322 322 322 321 321 321 317 314 313 315 316 313 310 308 306 305 304 303 302 302 298 294 293 292 291 290 289 287 287 287 286 285 285 285 285
321 320 320 320 320 320 321 322 322 322 322 321 321 318 318 316 314 312 310 308 305 303 303 299 297 296 296 294 292 291 290 290 289 288 287 286 285 284 284 284 284 284 284
320 318 319 319 319 320 321 322 322 320 318 316 314 312 311 309 309 308 305 305 303 300 299 297 295 291 289 290 289 290 289 287 284 283 283 283 284 285 285 285 285 285 285
315 315 316 318 318 317 315 313 312 311 309 307 305 305 306 304 304 304 304 301 297 294 292 290 289 288 287 289 288 284 282 282 282 283 284 283 283 283 283 283 284 285 285
312 312 312 312 311 309 308 307 306 306 304 303 301 300 298 296 297 299 298 293 289 287 287 288 287 285 283 281 281 281 281 283 282 281 280 280 279 280 280 283 284 285 285
308 307 307 307 306 306 305 304 303 301 299 295 293 291 291 291 290 290 290 290 289 286 284 282 280 279 279 279 279 282 282 281 279 278 278 278 278 277 277 278 279 279 280
303 303 303 302 302 302 302 299 297 295 292 289 288 287 287 287 288 287 287 286 285 285 282 281 279 278 278 280 281 281 279 278 278 277 277 277 276 276 276 275 275 276 278
301 298 297 298 297 297 296 294 293 292 289 287 285 284 283 284 284 285 284 283 281 280 279 278 278 279 279 280 279 279 278 277 276 275 275 275 275 274 274 274 274 275 275
293 291 290 290 290 290 290 289 289 288 288 287 286 285 284 283 282 281 281 281 280 280 279 279 278 278 280 279 278 277 276 275 274 274 273 273 272 272 272 272 272 273 272
287 286 287 287 287 287 287 287 287 287 288 287 286 284 283 281 280 280 280 279 279 279 278 278 278 278 278 277 276 275 275 274 273 273 272 272 271 270 270 270 270 270 271
287 287 287 287 286 285 284 283 284 284 284 284 284 284 282 281 280 280 279 279 279 278 278 277 277 276 276 275 275 274 273 272 272 271 270 270 269 268 269 269 268 268 269
286 285 285 284 284 283 283 283 283 282 282 281 281 281 280 280 279 278 277 277 276 277 276 277 275 274 273 273 273 272 271 270 270 269 268 268 267 267 268 267 267 267 267
283 282 281 281 281 280 280 280 280 280 280 279 279 279 277 276 276 275 275 274 274 274 273 273 272 272 271 271 270 269 269 269 268 267 267 267 267 266 265 266 266 265 266
280 279 279 278 278 277 277 277 276 276 276 275 275 274 274 273 273 272 272 271 270 270 270 270 270 270 269 268 268 267 267 267 266 266 266 266 266 266 265 265 265 265 264
277 276 276 275 275 274 274 273 273 273 272 271 270 270 271 271 270 269 269 268 268 268 268 268 267 267 267 266 266 265 265 265 265 265 265 265 265 265 264 265 264 264 265
274 274 273 273 272 272 271 271 271 270 270 269 269 269 268 268 268 267 267 266 266 266 265 265 265 265 264 264 263 264 263 263 263 263 263 264 264 264 264 264 263 264 264
273 272 271 270 270 269 269 269 269 268 268 268 267 267 267 266 266 265 265 264 264 264 264 263 262 262 262 262 262 261 261 262 262 262 262 263 263 263 263 263 263 263 262
271 270 269 268 268 268 267 267 267 266 266 266 266 266 265 264 264 264 263 263 263 262 262 261 261 261 261 261 260 260 260 260 261 261 261 262 262 262 262 262 262 262 262
269 268 267 266 266 266 265 265 264 264 264 264 264 263 263 262 262 262 261 261 261 260 260 260 259 259 259 259 259 259 259 260 260 260 261 261 261 261 261 261 262 262 262
267 266 265 265 264 264 264 263 263 262 262 261 261 261 261 260 260 260 260 259 259 259 259 259 258 258 258 259 259 259 260 260 260 260 260 261 261 261 261 261 262 262 262
265 264 264 263 263 262 262 261 261 260 260 260 260 259 259 259 258 258 258 258 257 257 257 258 258 258 258 259 259 260 259 260 260 260 260 260 261 261 261 262 262 262 262

GFSGL_925_thetae_093.txt.gz
Theta_e
317 317 316 316 315 315 315 315 315 316 317 317 317 317 316 317 317 319 320 320 319 318 316 316 316 313 310 309 308 311 309 307 309 306 304 301 300 299 299 298 298 298 297
318 317 317 316 315 315 315 315 315 315 316 316 317 318 319 318 318 320 320 318 318 318 317 315 316 312 310 308 308 309 306 304 304 304 301 300 299 299 299 298 297 296 295
318 317 317 316 316 316 315 316 315 315 315 316 317 318 317 317 319 322 320 319 317 316 316 316 316 314 310 308 308 307 305 303 302 300 299 298 298 299 297 296 295 293 292
318 318 317 317 316 316 316 316 316 316 317 318 319 319 319 320 321 321 320 318 316 315 316 317 315 312 310 308 307 305 303 302 300 298 297 296 295 294 293 293 293 292 291
319 318 318 317 317 318 317 318 319 319 320 321 321 321 321 321 321 320 318 316 316 315 314 313 312 311 310 308 306 303 303 301 298 295 293 291 293 291 292 292 291 290 289
319 318 318 317 317 318 319 319 320 321 321 321 321 321 321 321 321 321 319 315 314 313 310 308 307 306 305 305 304 303 302 300 296 291 292 291 290 289 290 289 288 287 287
319 318 317 317 317 318 318 319 320 321 321 321 321 320 319 317 316 316 314 312 310 308 306 303 302 301 300 299 295 294 292 292 292 291 290 288 288 288 286 286 286 286 286
320 318 318 319 318 319 319 319 319 319 318 316 314 313 312 310 310 310 310 307 304 299 297 296 295 293 292 292 291 290 289 289 288 287 286 285 285 285 285 285 286 286 285
317 317 318 318 318 317 315 313 312 312 310 307 304 304 303 299 300 302 304 299 294 291 290 289 289 287 287 288 288 286 285 284 283 283 284 284 284 283 283 284 285 285 285
311 311 312 313 311 309 308 307 305 305 301 300 296 295 294 292 294 297 298 293 289 287 286 285 285 283 282 282 282 282 283 284 282 282 281 280 280 280 279 280 282 283 284
307 308 307 307 306 306 304 303 302 299 297 292 290 289 289 289 289 290 290 289 287 285 284 283 282 281 281 281 281 282 283 282 281 280 280 279 280 278 278 279 278 278 280
302 300 299 298 297 297 297 293 292 290 288 286 285 284 285 285 287 287 288 287 286 285 282 281 280 279 279 281 281 281 281 280 279 279 278 279 278 277 277 276 276 276 276
295 292 291 292 292 291 291 290 289 289 287 286 285 284 283 283 283 284 284 284 284 282 281 280 280 280 280 281 280 279 278 278 278 278 278 277 276 275 274 274 274 274 275
291 290 289 288 288 288 288 288 288 288 287 286 284 283 282 282 281 281 281 280 280 280 279 279 279 279 279 280 279 278 277 276 276 276 275 275 274 273 273 272 272 273 273
290 288 287 286 286 285 285 284 284 285 285 285 285 284 284 282 281 280 280 280 280 279 279 279 279 279 279 279 278 277 276 275 275 274 273 273 273 272 272 271 272 272 272
288 287 287 286 285 284 284 283 282 282 282 282 281 282 280 280 279 278 278 278 277 277 278 278 278 277 277 277 277 276 274 274 273 272 272 272 271 271 270 270 271 271 271
286 285 284 284 284 284 284 284 282 279 278 279 279 278 277 277 277 276 276 276 275 276 276 275 275 274 274 274 274 273 272 272 270 270 270 270 269 269 269 269 269 269 270
281 281 281 281 281 281 281 280 280 280 278 276 274 274 275 274 273 273 272 273 273 272 272 272 272 272 271 271 270 269 269 269 268 268 267 267 267 268 268 268 268 268 268
279 278 278 277 277 277 277 276 276 275 274 273 273 271 270 271 270 269 269 269 269 269 269 269 269 268 268 267 267 267 266 266 266 265 266 266 266 266 266 266 267 267 267
275 275 275 275 274 274 274 273 273 272 272 271 270 269 269 269 269 268 267 266 266 266 266 266 266 266 265 265 265 265 265 264 265 265 265 265 265 265 265 266 266 266 267
274 273 272 272 272 271 271 271 270 270 270 269 268 266 266 267 267 266 265 264 264 264 263 263 263 263 263 263 263 263 263 262 263 263 263 263 264 264 265 265 266 266 266
272 271 270 270 269 269 268 268 268 267 267 267 266 265 265 265 265 264 264 262 262 262 262 262 261 261 261 261 261 261 261 261 261 262 262 262 263 264 264 265 265 265 265
269 269 268 267 267 266 266 266 265 265 264 264 264 264 263 262 262 262 261 260 260 260 259 259 259 259 259 259 259 259 259 260 260 260 261 262 263 263 263 264 264 265 265
267 267 266 265 265 264 264 264 263 262 262 262 262 262 261 261 260 260 259 259 258 258 258 258 258 258 258 257 258 258 259 259 259 260 260 261 261 262 263 263 263 264 264
265 264 264 263 263 263 262 262 261 261 261 260 260 259 259 259 259 258 257 257 257 257 257 257 257 257 257 259 259 260 259 259 258 258 259 260 261 261 261 262 263 263 264
264 263 262 262 262 261 261 261 260 260 259 259 258 258 257 257 257 256 256 256 256 256 256 257 258 259 260 260 260 260 260 260 260 259 258 259 260 261 262 262 263 263 264

GFSGL_925_thetae_096.txt.gz
Theta_e
322 322 321 321 320 320 319 319 319 319 319 319 319 319 320 320 320 320 320 321 321 321 321 321 320 320 318 316 314 312 310 310 311 312 313 312 308 306 302 299 300 300 299
321 321 321 321 321 320 320 319 319 318 319 319 319 319 320 319 320 320 321 321 320 320 320 319 318 317 316 315 313 310 310 309 310 311 312 309 306 303 301 300 298 298 299
321 321 321 321 321 321 320 319 319 320 319 319 320 320 320 320 320 321 321 320 318 319 320 318 318 316 314 313 312 310 309 309 309 309 310 304 300 299 298 297 298 298 299
322 322 321 321 321 321 320 320 320 320 319 319 319 319 320 320 320 321 321 320 322 322 320 319 318 315 313 312 312 310 310 309 308 306 304 298 297 296 297 297 297 297 297
323 323 322 322 321 321 320 320 319 319 319 319 320 320 321 322 322 323 322 321 321 319 318 316 315 315 314 313 312 310 308 306 302 299 296 295 295 294 293 295 293 294 294
323 323 323 322 321 321 321 320 320 321 321 321 322 322 323 323 322 321 321 319 317 316 315 314 312 309 308 309 309 307 305 301 297 295 293 292 292 292 292 291 291 291 292
324 324 323 323 322 321 321 321 321 321 321 322 322 322 321 318 318 317 315 313 311 308 306 303 300 298 297 297 296 295 294 293 294 293 291 291 290 290 290 290 289 288 288
324 324 323 322 322 321 321 321 321 320 318 314 311 309 308 305 307 309 308 304 300 296 294 292 291 290 289 290 290 290 288 288 288 288 288 287 286 286 286 286 286 287 287
321 321 321 321 319 317 314 311 308 308 304 299 297 296 296 294 297 299 301 295 291 288 288 288 288 288 288 288 289 287 287 286 285 285 284 284 284 284 284 285 286 286 287
310 309 310 310 308 305 303 300 298 297 292 292 290 289 289 289 291 293 293 290 287 286 286 286 286 286 286 286 285 284 284 284 284 283 283 283 282 282 281 281 283 284 285
302 302 301 301 299 298 296 294 293 290 289 287 287 286 287 288 289 289 289 288 287 285 284 283 283 283 283 283 283 283 284 283 283 282 282 282 282 282 281 281 281 280 281
296 296 295 295 294 294 293 291 290 289 288 286 285 284 284 284 286 286 286 286 285 284 283 282 281 281 281 281 282 281 281 281 281 282 281 281 281 281 280 279 278 277 278
295 293 292 291 291 291 290 289 288 287 286 285 284 283 282 282 282 282 282 282 282 283 282 281 280 281 281 282 280 280 280 281 280 280 281 280 279 278 277 276 276 276 276
293 292 291 290 289 288 287 287 287 287 286 285 285 284 284 284 284 283 283 283 282 282 282 281 281 281 280 280 280 280 280 279 278 278 278 277 277 276 276 275 275 275 276
291 291 289 288 286 284 284 284 284 283 286 286 285 285 284 282 280 279 279 279 279 279 281 281 281 280 280 280 279 280 278 277 277 276 276 275 275 275 274 274 274 274 275
291 290 289 289 287 285 283 281 280 280 280 280 281 280 279 278 278 277 277 276 276 277 279 278 278 277 277 277 277 276 276 275 274 273 273 273 273 272 272 272 272 273 273
288 288 288 288 287 286 284 282 280 277 277 277 277 276 276 275 274 274 274 275 274 276 276 275 275 274 274 274 273 273 272 271 271 271 271 270 270 270 270 271 271 271 272
285 285 285 285 284 284 283 283 282 281 279 276 273 273 273 272 271 271 272 273 274 273 272 272 272 271 271 270 270 270 269 269 269 269 268 268 268 269 269 269 270 270 270
283 282 281 281 281 280 280 279 279 278 277 276 275 273 271 271 270 270 270 271 271 271 270 270 270 269 269 268 268 268 268 267 267 267 267 267 267 267 268 268 268 268 268
278 278 278 278 278 277 277 276 276 275 274 273 271 270 271 271 271 270 269 268 269 268 268 268 268 267 267 267 267 266 266 266 266 266 266 266 266 266 267 267 267 268 268
276 275 275 275 275 275 274 274 273 273 273 272 269 267 267 270 269 269 268 267 267 267 266 266 266 266 266 265 265 265 265 265 265 265 265 265 265 265 266 267 267 267 268
274 274 273 273 273 272 272 271 271 271 270 270 269 267 266 268 267 267 267 266 265 265 265 264 264 264 264 264 263 263 263 264 264 264 264 264 264 265 266 266 266 267 267
272 272 271 270 270 270 270 270 269 269 268 268 268 267 267 266 266 265 265 264 264 263 263 262 262 262 262 262 262 262 262 263 263 263 263 263 264 264 265 265 266 266 267
271 270 269 269 269 269 269 268 266 266 267 267 266 266 265 265 265 264 263 262 262 261 261 261 261 261 260 260 261 261 261 261 261 261 262 263 263 264 264 265 265 266 266
269 268 268 268 268 267 267 267 266 266 266 265 265 264 264 263 263 263 262 261 260 260 260 260 260 260 260 259 259 259 260 259 259 259 260 262 263 263 264 264 265 266 266
267 267 267 267 267 266 266 266 265 265 264 264 263 263 262 262 262 261 261 260 259 259 259 260 260 259 259 260 261 260 259 258 258 258 259 261 262 263 264 265 265 265 266

GFSGL_925_thetae_099.txt.gz
Theta_e
324 323 323 323 323 322 322 323 322 321 321 321 321 321 321 321 321 322 322 322 322 322 322 323 323 323 323 322 321 319 318 316 315 316 314 314 311 311 311 312 309 305 305
324 324 323 323 323 321 322 322 322 322 321 321 320 320 321 321 321 321 322 322 322 322 323 323 323 323 323 321 321 319 317 316 314 313 314 313 313 312 311 309 307 304 304
324 324 324 324 324 323 323 322 322 321 321 321 321 321 321 321 321 322 322 322 322 323 323 323 322 321 319 319 318 316 315 314 313 311 312 312 311 311 310 308 306 303 301
323 324 324 324 324 324 324 324 323 323 322 322 322 322 322 322 322 322 322 322 323 323 323 320 320 321 320 318 317 315 314 312 310 309 309 308 305 302 301 299 298 298 298
324 324 324 324 324 324 324 324 323 323 322 322 322 322 322 322 321 321 321 321 322 322 321 320 317 314 314 312 311 310 311 310 309 308 302 298 297 296 296 296 297 296 295
326 325 325 324 324 324 324 323 323 323 323 322 322 322 322 320 320 322 323 323 320 315 312 308 305 303 301 299 299 299 300 301 299 298 294 294 292 292 293 293 292 291 292
327 326 326 325 325 324 324 323 323 323 322 320 316 317 313 311 312 316 315 311 306 302 299 297 295 293 293 293 292 293 292 292 292 292 290 289 289 289 290 290 290 290 290
327 326 326 326 325 325 324 319 317 318 315 310 306 304 302 298 301 303 305 301 296 293 291 290 290 290 290 290 290 290 289 289 289 289 289 288 288 288 288 288 288 287 287
327 327 326 326 320 312 309 305 303 303 298 294 293 293 293 291 295 297 298 293 291 288 288 287 288 288 289 289 288 287 286 286 286 286 285 285 285 285 284 284 286 287 288
311 308 308 309 306 301 299 297 294 293 290 290 289 289 289 288 289 290 290 289 287 286 285 285 286 285 285 286 285 285 287 286 285 285 285 285 284 284 283 282 282 283 284
302 302 300 299 298 295 293 292 291 289 288 286 285 285 286 286 286 287 287 287 286 285 285 284 282 282 282 282 284 283 282 282 284 284 284 284 284 283 283 282 282 281 281
296 295 294 293 292 291 290 289 288 287 286 285 284 284 283 283 284 283 283 284 284 285 284 283 282 281 282 282 282 280 280 282 282 282 282 283 283 282 281 279 279 278 278
294 292 292 291 291 290 289 289 288 287 286 286 285 285 284 284 284 283 283 282 282 283 282 282 282 282 282 282 281 280 281 281 280 280 280 281 279 279 278 278 278 277 277
292 291 290 289 288 288 287 288 288 288 287 287 286 285 283 282 281 282 282 282 282 282 283 282 282 281 281 281 281 281 281 279 278 279 278 277 277 276 276 276 276 276 276
291 290 288 286 285 284 284 284 283 284 285 284 283 283 281 280 279 278 278 278 279 279 281 280 280 279 279 278 278 278 277 277 276 275 274 274 274 274 274 273 273 273 274
292 290 288 286 284 282 281 280 280 279 279 279 279 278 276 276 276 276 276 275 275 277 279 278 277 277 276 275 275 275 274 274 273 272 272 272 272 272 272 271 272 272 273
290 289 288 287 285 284 282 280 278 277 277 276 275 275 274 273 273 274 274 275 274 275 276 275 275 274 273 273 273 272 272 271 270 270 270 270 270 270 270 270 270 271 271
287 287 287 287 286 285 284 284 283 281 278 275 273 273 272 272 272 272 273 275 274 273 273 273 273 272 271 271 271 270 270 269 269 269 269 269 269 269 269 269 270 270 270
284 284 284 283 283 283 282 282 281 280 278 277 276 274 273 273 272 272 272 272 272 272 271 271 271 270 270 269 269 269 269 269 268 268 268 268 268 268 268 268 268 269 269
281 281 281 281 280 280 279 279 278 277 276 274 272 272 273 274 273 272 271 270 270 270 270 270 269 269 268 268 268 268 268 267 267 267 267 267 267 267 267 268 268 268 269
278 278 278 278 278 277 277 277 276 276 275 272 269 268 269 272 271 271 270 269 269 269 268 268 268 268 267 267 267 266 266 266 266 266 266 266 266 266 267 267 268 268 268
277 276 276 276 275 275 274 274 274 273 273 273 272 269 269 270 270 270 269 268 267 267 267 266 266 266 266 265 265 265 265 265 265 265 265 265 265 266 266 267 267 267 268
275 274 274 273 273 273 273 273 273 272 272 271 271 270 270 269 269 268 267 266 266 265 265 264 264 264 264 264 263 264 264 264 264 264 264 264 264 265 265 266 266 267 267
274 273 273 273 273 272 272 270 269 269 270 270 270 269 268 268 267 267 266 265 264 264 263 263 263 263 263 262 263 262 263 263 263 262 262 262 263 264 265 265 265 266 267
273 272 272 272 271 271 271 270 270 270 269 269 268 268 267 267 266 266 265 264 263 262 262 262 263 263 263 262 262 262 263 262 260 260 260 261 262 263 264 265 266 266 267
271 271 271 271 271 270 270 270 269 268 268 267 267 266 266 266 265 264 264 263 262 261 262 263 262 262 262 262 263 263 261 260 260 261 261 261 262 263 264 265 265 265 266

GFSGL_925_thetae_102.txt.gz
Theta_e
324 324 324 322 322 320 320 322 323 322 322 323 321 320 321 320 320 320 320 319 319 320 321 322 321 320 322 323 323 323 322 320 318 318 317 317 317 316 315 314 313 311 311
325 324 323 323 323 322 321 319 319 323 322 322 322 322 321 321 320 320 320 322 322 323 322 323 323 323 323 323 323 323 322 320 318 319 318 316 315 314 314 313 311 311 310
326 325 324 323 324 323 323 324 323 323 323 322 321 321 321 321 321 321 322 322 322 322 322 323 323 322 323 323 323 321 321 320 318 316 315 314 313 312 312 311 310 310 308
326 325 325 325 324 324 322 322 323 323 323 322 322 322 321 321 321 321 322 322 322 323 323 322 320 319 315 315 314 313 312 312 313 313 312 310 308 306 304 303 303 303 302
326 326 326 325 325 325 324 324 323 323 322 322 322 322 322 322 322 322 323 323 321 320 317 313 305 301 301 301 303 302 302 303 302 301 300 298 296 295 295 295 296 297 298
325 325 326 327 326 326 326 325 325 324 324 323 323 323 320 316 313 319 320 320 317 313 306 299 295 294 293 294 293 294 296 295 295 294 292 292 290 290 291 291 291 291 292
325 326 325 326 326 326 325 325 324 323 318 317 314 312 309 306 307 315 318 311 305 298 295 293 291 291 291 291 291 290 291 291 290 290 289 288 288 288 288 289 289 289 290
327 327 327 326 326 326 324 316 316 313 309 304 300 299 298 296 299 301 301 297 294 291 290 289 289 289 289 289 289 288 287 287 286 286 286 286 286 286 285 285 285 286 287
328 327 327 327 314 311 307 305 301 302 297 294 293 292 291 290 293 294 295 292 289 287 286 286 286 286 286 287 286 287 287 285 285 285 285 285 284 284 284 283 283 283 284
311 309 308 307 304 300 297 295 293 292 289 288 288 288 288 288 289 290 290 288 287 285 284 283 283 283 283 284 283 282 282 283 283 283 283 283 284 284 284 283 282 281 282
300 300 300 299 296 293 292 290 289 288 287 286 285 285 285 286 286 287 287 286 286 285 284 282 282 283 282 282 280 280 281 282 282 282 282 282 282 281 280 279 278 278 278
295 294 293 292 292 291 289 288 287 286 285 285 284 284 283 283 283 283 283 284 283 282 282 282 282 282 282 281 281 281 281 280 279 279 280 279 278 278 277 277 277 277 277
293 292 291 290 290 289 288 288 287 287 286 286 285 284 284 283 283 282 282 282 283 282 282 282 281 281 281 280 280 280 278 277 277 276 276 275 275 275 275 274 274 274 274
290 289 288 287 287 287 288 288 287 287 286 285 283 282 281 279 279 279 279 279 280 282 281 280 279 279 278 278 277 276 276 275 274 273 273 273 273 273 272 272 272 272 272
287 286 285 284 283 282 282 282 282 283 283 281 280 280 279 278 277 277 277 277 278 279 279 277 276 276 275 275 274 274 273 272 271 271 271 271 271 271 271 271 271 271 271
288 286 284 283 282 281 280 279 278 278 278 278 277 276 276 276 276 276 276 276 277 277 276 275 274 274 273 273 272 272 271 271 270 270 270 270 270 270 270 270 269 270 270
286 285 283 282 281 280 279 277 277 276 276 275 275 274 274 274 275 275 276 275 274 274 274 273 272 272 271 271 271 270 270 269 269 269 269 269 269 269 268 269 269 269 269
287 286 285 284 282 280 279 279 278 276 274 274 274 274 274 274 273 274 274 274 272 272 272 272 271 270 270 270 269 269 269 268 268 268 268 268 267 267 268 268 268 268 268
285 284 284 284 283 282 281 280 279 277 276 275 275 274 274 274 273 272 272 271 271 271 270 270 270 269 269 269 268 268 267 267 267 267 267 267 267 267 266 267 267 268 268
282 282 281 281 280 279 278 278 276 274 272 271 271 271 273 273 272 271 270 269 269 269 269 269 268 268 268 267 267 266 266 266 266 266 266 266 266 265 266 266 267 267 267
279 279 278 278 278 278 277 276 275 273 271 269 270 271 272 271 271 270 269 268 268 267 267 267 266 267 266 266 265 265 265 265 265 265 265 265 264 265 265 266 266 266 266
277 277 276 276 276 275 275 274 274 274 273 272 270 270 270 270 269 269 268 267 266 266 266 265 265 265 265 264 264 264 264 264 264 264 263 263 263 263 264 264 265 265 266
275 275 274 274 274 274 274 273 273 272 272 271 270 270 269 269 268 267 267 265 265 265 264 264 263 264 264 263 263 263 263 263 263 263 262 262 261 262 262 263 264 264 265
274 274 274 273 272 271 271 270 271 271 271 270 270 269 268 268 267 267 266 265 264 263 263 263 263 263 263 263 262 262 263 263 263 262 261 260 260 261 262 262 263 264 265
273 273 272 272 272 272 271 271 270 270 269 269 268 268 267 267 266 265 265 264 263 262 262 263 263 263 263 262 263 263 263 263 262 262 261 261 261 261 262 262 263 264 264
272 272 272 272 271 271 270 269 269 269 268 268 267 266 266 266 265 264 264 263 262 262 262 262 262 262 262 263 263 263 262 262 262 262 261 261 261 261 262 262 262 263 264

GFSGL_925_thetae_105.txt.gz
Theta_e
323 322 322 322 322 322 322 322 320 320 320 319 319 318 319 319 318 319 319 318 321 320 320 321 321 320 320 320 320 320 321 321 320 320 320 320 319 318 317 317 317 316 316
323 323 322 322 321 322 323 322 321 321 321 319 319 318 319 318 320 320 319 319 320 319 319 319 319 320 321 321 321 321 321 321 321 321 320 320 318 317 316 315 313 313 313
323 324 323 322 322 319 322 322 321 321 321 322 321 320 320 319 319 319 319 319 319 319 319 320 321 322 321 321 320 319 317 318 317 314 313 313 313 312 309 308 307 307 306
324 323 323 323 323 320 319 319 321 322 322 322 322 322 321 321 320 320 320 320 320 321 320 319 318 316 313 311 310 309 308 307 308 306 304 302 300 299 297 296 296 297 298
324 323 323 323 323 323 322 322 320 319 322 322 322 322 321 321 321 321 321 321 320 317 312 307 303 300 299 300 301 299 299 300 298 296 294 294 291 291 290 290 291 292 293
325 324 324 323 323 323 323 322 323 323 323 323 322 321 319 317 316 319 319 318 315 308 300 296 294 293 293 292 292 292 293 292 291 290 288 289 287 287 287 288 288 289 290
325 324 324 324 324 324 323 322 322 322 319 317 315 313 310 308 312 316 316 311 304 296 293 292 290 290 290 290 289 288 287 287 287 287 286 285 285 285 284 284 284 284 286
324 325 325 325 325 325 323 318 315 311 308 305 303 302 301 297 301 303 305 299 293 290 289 288 288 288 288 288 288 286 286 285 285 285 285 285 284 284 284 283 283 282 282
324 324 325 325 318 314 308 304 300 301 296 293 292 292 291 290 292 294 295 291 288 286 285 285 286 285 285 284 284 283 283 283 283 283 283 284 284 283 280 279 278 278 279
312 313 315 312 308 302 299 296 294 293 290 289 288 288 288 288 288 289 289 287 284 283 283 283 283 281 281 281 281 282 282 281 280 280 281 280 279 278 277 277 277 277 278
301 302 304 303 301 297 293 291 290 288 287 286 286 286 286 287 287 287 286 285 283 282 283 282 282 281 281 281 281 280 279 278 279 279 277 276 275 275 274 274 274 274 275
295 294 293 292 291 290 290 288 287 286 285 284 284 284 283 283 284 283 283 282 282 282 282 282 282 281 281 279 278 277 276 276 275 274 273 273 273 273 273 272 272 271 271
293 292 291 290 289 288 287 287 286 286 286 285 284 283 281 281 281 282 282 282 282 280 280 280 279 278 277 276 276 274 273 272 272 272 272 272 271 271 271 271 270 270 270
290 289 289 288 288 288 287 287 286 285 284 282 281 279 278 278 279 280 281 281 281 279 278 277 276 274 274 273 272 272 271 270 271 270 270 269 270 269 269 269 269 269 270
286 285 284 283 283 282 281 281 281 282 281 280 279 278 278 277 277 278 279 279 278 276 275 274 273 272 272 271 271 270 269 269 269 269 269 269 268 268 268 268 268 269 269
285 283 282 281 280 279 279 278 278 277 277 277 277 277 277 277 277 277 277 277 275 274 272 271 271 271 270 270 269 269 269 269 268 268 268 267 267 267 267 267 268 267 267
283 282 281 280 279 278 277 277 276 276 276 276 276 276 276 277 277 275 275 274 273 272 271 270 270 269 269 269 269 268 268 267 267 267 267 266 266 266 266 266 266 267 267
282 281 280 279 278 277 276 275 275 275 275 275 275 275 275 275 275 274 273 271 271 270 270 269 269 268 268 268 267 267 267 266 266 266 266 266 265 265 265 265 266 266 266
284 283 282 282 280 279 277 276 275 275 275 275 274 274 273 272 272 271 270 269 269 269 268 268 267 267 267 266 266 266 265 265 265 265 265 265 264 264 264 264 265 265 266
281 280 280 279 278 277 276 274 273 272 272 272 272 272 271 270 269 268 268 268 267 267 267 266 266 266 266 265 265 264 264 264 264 264 264 263 263 263 263 263 264 264 264
279 278 278 278 277 276 274 272 271 271 270 271 271 271 270 269 268 267 267 266 266 266 265 265 265 265 265 264 264 264 264 263 263 263 263 262 262 262 262 262 262 262 264
277 276 276 276 275 275 274 272 271 270 270 270 270 269 269 268 267 266 266 265 265 264 264 264 264 264 264 263 263 263 263 263 263 263 262 262 261 261 261 261 261 262 262
275 274 274 274 273 273 272 272 271 271 270 269 269 268 268 267 266 265 265 264 264 263 263 263 263 263 263 263 263 262 263 262 262 262 262 262 261 261 261 260 261 261 262
273 273 272 272 272 271 271 271 270 270 269 268 268 267 267 266 265 265 264 264 264 263 263 263 263 263 263 262 263 263 263 262 262 262 262 261 261 261 260 260 261 261 262
272 272 272 271 271 271 270 270 269 268 268 267 267 267 266 265 265 264 264 264 263 263 262 262 262 262 262 262 262 262 262 262 262 262 261 261 261 261 261 261 261 261 262
272 271 271 271 270 269 269 268 268 267 267 266 266 265 265 264 264 263 263 263 262 262 261 261 261 262 262 262 262 262 262 262 262 261 261 262 262 262 262 262 262 262 262

GFSGL_925_thetae_108.txt.gz
Theta_e
322 322 322 323 323 323 322 322 322 322 321 320 320 319 318 318 319 318 318 319 319 317 317 317 318 316 318 319 319 319 319 319 318 319 318 319 319 319 319 316 317 317 315
321 321 321 323 323 323 323 321 321 321 321 320 319 320 320 319 319 320 320 319 318 317 316 318 318 318 319 319 320 320 320 320 319 319 320 320 318 315 314 314 311 308 308
321 321 321 321 322 322 322 322 321 320 320 320 319 318 318 318 319 320 320 319 318 318 318 319 319 319 319 319 318 317 315 313 312 309 309 308 306 304 303 302 301 299 299
322 323 321 321 321 321 322 321 321 320 320 320 319 319 318 318 318 317 318 319 319 318 318 317 314 311 312 310 309 307 306 306 304 300 298 296 294 292 292 290 291 291 292
322 322 322 321 321 320 321 322 321 321 321 321 320 319 319 318 318 318 318 318 319 316 310 307 302 298 297 299 299 298 297 297 294 292 291 289 288 287 287 287 287 286 288
322 322 322 322 321 321 319 320 321 321 321 320 321 321 320 319 320 319 320 319 314 308 301 296 295 294 293 292 292 293 293 292 290 290 287 287 285 284 284 283 283 284 286
323 322 322 322 321 321 321 320 319 319 319 318 314 313 311 311 314 316 317 311 304 297 294 292 290 290 290 289 289 289 287 286 286 285 284 284 284 283 282 282 281 281 281
323 323 322 322 322 322 321 318 316 313 312 309 305 304 304 298 304 308 310 301 294 291 290 289 288 287 287 287 286 285 284 283 283 284 283 282 281 280 279 278 278 278 278
323 323 323 323 320 318 313 307 305 305 300 298 296 296 296 292 293 296 299 291 288 286 285 285 285 284 284 284 284 282 281 281 282 281 280 280 278 277 276 276 275 275 275
317 319 322 318 314 306 302 298 296 296 293 292 291 291 290 289 289 289 290 287 284 283 282 282 281 281 282 282 281 279 279 279 279 279 278 276 275 274 273 273 272 273 273
305 308 307 307 307 304 298 295 294 290 289 288 287 287 287 287 286 286 286 284 283 283 282 282 281 281 279 279 278 277 276 276 275 274 273 272 272 271 271 270 270 270 271
298 298 296 295 294 293 291 290 288 287 286 285 285 284 284 284 284 283 283 283 283 282 282 281 280 279 277 276 275 274 274 273 272 271 271 270 270 270 270 270 269 270 269
293 292 291 290 289 289 288 287 286 286 285 284 283 282 281 283 283 282 281 282 281 280 279 278 277 276 274 273 273 272 271 270 269 269 269 269 269 269 269 268 269 269 269
291 290 289 289 288 287 286 286 285 284 283 281 280 280 279 280 281 281 279 279 278 277 276 274 273 272 272 271 270 270 269 268 268 268 268 268 268 267 267 267 268 268 267
287 286 284 283 282 281 281 281 281 281 281 279 279 279 279 279 279 280 279 278 276 274 274 273 272 271 270 269 269 268 268 267 267 267 267 267 266 266 266 266 267 267 267
283 282 281 281 280 279 279 279 279 279 279 278 278 278 278 279 279 278 277 275 274 274 272 270 269 269 269 268 268 267 267 266 266 266 266 265 265 265 265 265 265 266 266
281 280 280 279 279 279 278 278 278 278 278 278 278 277 277 277 277 276 275 273 272 272 270 269 269 268 268 267 267 266 266 266 265 265 265 264 264 264 264 264 264 265 265
280 279 278 277 277 277 277 276 276 276 276 276 277 277 276 275 275 274 273 271 270 269 268 268 268 267 267 266 266 265 265 265 265 264 264 264 263 263 263 263 263 263 264
279 278 278 277 276 276 276 276 276 275 275 274 273 273 273 273 272 271 271 269 268 268 267 267 267 266 265 265 265 264 264 264 264 264 263 263 263 262 262 262 262 262 263
280 279 278 277 276 275 275 274 274 273 273 272 271 269 269 269 269 268 268 268 267 267 266 266 265 265 265 264 264 264 264 263 263 263 263 262 262 262 261 261 261 261 261
279 278 276 275 274 273 273 272 272 272 271 270 270 269 269 268 267 266 266 266 266 265 265 265 265 264 264 263 263 263 263 263 263 262 262 262 262 262 262 261 261 261 261
277 276 275 274 272 272 272 271 271 270 270 269 268 268 268 267 266 265 265 265 264 264 264 264 264 263 263 263 263 263 263 263 262 262 262 262 262 262 262 261 261 260 260
275 274 274 273 272 272 271 270 270 269 268 268 267 267 266 266 265 264 264 264 263 263 263 263 263 263 263 263 263 263 263 262 262 262 262 262 262 262 262 261 260 260 260
273 272 272 271 271 270 270 269 269 268 268 268 267 266 266 265 264 264 264 263 263 263 263 263 262 262 262 263 263 263 262 262 262 262 262 262 262 262 262 262 262 261 261
272 271 271 270 270 269 269 268 268 268 267 267 266 266 265 265 264 264 263 263 263 263 262 262 262 262 262 263 262 262 262 262 262 262 263 262 263 263 263 262 262 261 261
271 271 270 270 269 269 268 268 267 267 267 266 266 265 265 264 264 263 263 262 262 262 262 262 262 262 262 262 262 262 262 262 263 263 262 263 263 263 263 262 262 262 262

GFSGL_925_thetae_111.txt.gz
Theta_e
322 322 323 323 322 322 323 323 323 323 322 321 322 322 322 322 322 322 323 320 320 319 319 319 318 317 316 318 319 317 319 318 318 318 318 319 318 317 317 314 312 312 309
322 322 322 322 322 322 322 322 322 322 322 322 321 320 320 320 321 321 319 319 318 318 318 318 317 317 318 318 317 318 319 318 318 318 319 314 312 306 305 305 303 300 299
322 321 322 322 322 322 321 322 322 321 320 320 321 320 319 318 318 319 319 318 317 318 318 318 317 317 318 318 317 316 317 315 312 310 305 303 300 300 299 296 295 295 292
321 321 321 321 322 322 322 321 321 321 320 320 319 319 320 319 320 320 319 319 319 319 318 317 316 315 313 312 311 308 306 304 302 300 296 294 292 290 289 288 287 287 288
320 320 319 320 321 322 322 321 321 320 320 320 319 319 318 318 319 319 319 319 318 316 312 308 305 305 305 303 301 299 298 296 294 292 290 288 286 285 284 283 283 283 286
321 321 319 319 320 321 321 321 321 320 320 319 319 318 318 318 318 318 318 317 316 311 304 297 295 294 294 294 293 293 293 292 289 286 285 285 283 283 282 281 280 280 281
321 321 321 320 319 319 320 321 320 320 319 319 318 318 317 317 318 318 318 315 308 301 296 293 290 290 290 290 288 288 287 286 286 284 282 281 279 278 279 278 277 277 277
321 321 321 321 320 319 318 318 317 316 315 313 311 310 310 307 312 317 316 305 297 292 291 290 288 288 287 287 286 284 282 282 282 281 279 278 277 277 275 275 274 273 274
322 322 321 321 320 318 314 311 310 310 306 303 301 301 302 296 299 305 310 295 290 288 288 287 286 285 284 286 285 282 280 279 277 277 276 276 275 274 273 273 271 271 272
322 323 322 321 319 313 311 305 302 303 298 296 293 292 290 289 289 289 293 289 285 283 284 283 283 283 283 282 281 279 277 276 276 276 274 273 272 271 271 270 270 270 270
313 318 318 314 311 309 305 303 300 295 292 290 288 287 287 287 285 285 285 284 283 282 281 280 280 279 278 277 277 276 275 274 273 272 271 271 270 270 269 269 269 269 269
304 302 302 301 299 297 295 292 291 289 287 286 285 285 285 285 285 284 284 283 282 281 280 279 278 276 275 274 274 273 273 272 271 270 270 269 269 268 268 268 268 268 268
294 293 293 293 292 292 290 288 287 286 286 285 285 284 283 283 282 282 282 281 280 279 278 277 276 274 273 273 272 271 271 270 269 268 268 267 267 267 267 267 267 267 267
290 289 288 287 286 286 287 287 286 284 283 283 282 282 281 280 280 280 279 278 278 277 275 274 274 272 271 270 270 269 268 268 267 267 267 267 267 266 266 266 266 266 266
285 284 283 282 282 282 281 281 280 280 281 281 281 281 281 280 279 280 279 277 275 274 273 272 271 270 270 269 268 268 267 267 267 266 266 266 265 266 265 265 265 265 265
283 282 282 282 281 281 281 280 280 280 280 280 280 280 280 279 279 278 277 275 274 274 272 270 269 269 268 268 267 266 266 266 266 265 265 264 264 264 264 265 264 264 264
281 280 280 280 280 280 280 280 279 279 279 280 279 279 278 278 277 276 275 273 272 272 270 269 268 268 267 267 266 266 265 265 265 264 264 264 264 264 263 263 263 263 263
280 279 279 279 279 279 279 279 279 278 278 278 277 277 277 276 275 274 272 271 270 269 268 268 267 267 266 266 265 265 265 265 264 264 264 264 263 263 263 263 262 261 262
278 277 277 277 277 277 277 277 277 276 276 275 274 275 274 274 273 271 270 269 268 268 267 267 266 266 265 265 265 264 264 264 264 264 264 263 263 263 262 262 261 261 261
277 277 277 277 276 276 275 275 274 273 272 271 271 270 271 270 269 269 269 268 268 267 266 266 265 265 265 264 264 264 264 264 264 264 263 263 263 262 262 261 261 260 260
276 276 275 275 274 274 274 273 273 272 271 270 269 269 269 269 267 267 267 267 266 266 266 265 264 264 264 263 264 264 264 264 263 263 263 263 262 263 262 262 261 262 261
276 275 274 273 273 273 272 272 271 270 269 268 267 267 268 267 266 266 265 265 264 264 264 264 264 263 263 263 264 264 263 263 263 263 263 262 263 263 262 262 263 262 261
274 273 273 272 271 271 271 270 269 269 268 267 267 266 266 266 265 265 264 264 264 263 263 263 263 263 263 263 263 263 263 263 263 262 262 262 262 262 262 263 262 262 261
273 272 272 271 271 270 269 269 269 268 268 267 267 266 265 265 264 264 263 263 263 263 263 263 263 263 263 263 262 263 263 263 263 263 262 262 262 263 263 263 263 262 262
272 271 270 270 270 269 269 268 268 268 267 267 266 265 265 264 264 263 263 262 262 262 263 263 262 262 262 263 263 263 263 263 263 262 263 263 263 264 263 263 263 262 263
271 271 270 270 269 269 269 268 268 267 267 266 265 265 264 264 263 263 263 262 262 262 262 262 262 262 262 262 262 263 263 263 263 264 264 264 264 264 264 263 263 263 263

GFSGL_925_thetae_114.txt.gz
Theta_e
322 322 322 322 322 322 322 323 324 324 325 325 324 325 324 324 322 321 320 319 319 319 318 318 318 317 317 317 318 318 317 317 317 318 318 317 316 312 308 307 304 302 300
322 322 322 322 322 322 322 322 322 323 324 324 323 324 324 323 322 322 320 320 320 320 319 318 318 318 319 318 317 317 317 318 317 317 315 309 306 300 300 299 297 294 293
322 321 321 322 322 322 322 322 321 322 322 322 322 322 323 322 322 322 321 321 320 320 320 319 319 318 318 317 317 317 317 316 313 312 301 298 296 296 293 292 292 291 290
322 322 321 321 321 321 321 321 321 321 321 321 320 320 320 321 321 320 320 319 319 319 318 318 317 317 317 316 314 313 311 308 305 304 297 292 292 290 289 288 285 285 286
321 321 320 321 321 321 322 321 321 321 320 320 320 320 319 319 319 319 319 319 318 316 313 312 311 311 311 310 308 304 302 300 297 293 289 287 285 284 282 281 281 281 282
320 320 319 320 321 321 321 321 320 320 320 319 319 319 319 319 319 319 319 318 315 312 305 300 298 301 300 300 299 298 297 296 292 287 285 281 280 280 279 278 277 278 279
320 320 319 319 319 320 320 320 319 319 318 318 317 317 317 317 318 318 318 315 310 305 302 297 292 291 292 292 291 290 289 288 287 286 281 279 277 276 277 275 274 275 275
320 320 319 319 318 319 319 318 317 315 316 314 312 313 313 311 315 317 316 307 299 294 292 290 289 287 287 287 286 283 281 281 280 279 278 276 275 275 273 272 272 272 273
320 320 320 320 318 317 316 314 313 311 307 306 306 308 308 298 301 308 313 297 291 288 288 287 287 285 284 284 283 280 278 277 277 276 275 274 273 272 271 272 271 271 271
321 320 320 319 318 316 315 310 305 304 300 298 296 295 293 292 292 293 298 291 286 284 284 284 283 282 282 283 281 278 276 275 274 273 272 272 271 271 270 270 270 270 270
318 319 316 314 313 312 307 304 301 296 293 290 289 288 288 288 286 287 287 286 283 281 280 279 279 281 280 279 278 277 275 273 272 272 271 270 270 270 269 269 269 269 269
307 308 305 301 301 300 298 294 293 291 288 286 286 285 285 285 284 283 282 282 281 280 278 277 277 276 275 274 273 272 272 272 271 270 270 269 268 268 268 269 268 268 268
296 294 293 294 292 293 290 288 287 287 286 286 285 285 284 283 282 281 281 281 280 278 277 276 275 274 273 272 271 271 271 271 270 269 268 267 268 268 268 268 268 268 268
288 288 289 289 289 289 289 288 287 286 286 284 282 281 281 280 280 280 279 278 277 276 275 274 272 271 271 270 270 269 269 269 268 268 267 267 267 267 267 267 267 267 268
285 284 284 283 283 283 282 282 282 282 283 282 281 281 280 279 278 278 278 276 275 274 273 271 271 270 269 269 268 268 268 268 267 267 267 266 266 266 266 266 265 265 265
284 283 283 283 282 282 282 282 282 283 284 283 281 281 279 279 278 278 277 277 276 275 272 270 269 269 268 268 267 267 267 266 266 266 266 266 266 266 266 265 264 264 263
282 282 282 282 282 282 282 282 281 281 281 281 280 280 279 278 278 277 276 274 273 273 270 269 268 268 267 267 266 266 265 265 265 265 265 265 265 265 265 264 263 263 263
280 280 280 281 281 281 281 280 280 279 279 279 278 278 277 277 276 274 273 272 270 270 269 268 267 267 266 266 266 266 265 265 265 265 265 264 264 264 264 264 264 262 261
278 278 278 278 279 279 278 278 278 277 277 276 275 276 275 274 273 272 270 270 269 268 267 267 267 267 266 266 265 265 265 265 265 264 264 264 264 264 264 264 263 263 261
277 277 277 277 276 276 275 275 274 273 273 272 271 271 272 271 269 269 269 269 268 267 267 266 266 266 265 265 264 265 265 264 264 265 265 264 264 264 264 264 263 262 261
276 276 276 275 275 274 274 273 272 271 270 269 269 270 270 269 268 268 268 268 268 267 266 266 265 265 264 265 265 264 264 264 264 264 264 264 264 265 264 264 263 262 261
275 275 274 274 273 273 272 271 270 270 269 268 268 268 269 268 267 267 266 266 266 266 265 265 264 264 264 264 264 264 264 264 264 264 265 265 265 264 264 264 263 262 261
275 274 273 272 271 271 271 270 269 268 267 267 267 267 267 266 266 265 265 265 265 264 264 264 264 264 264 264 264 264 264 264 264 264 265 265 265 264 264 263 262 262 262
274 273 272 271 271 270 269 268 268 268 267 267 266 266 265 265 264 264 264 264 264 264 264 263 263 264 264 263 263 263 264 264 264 264 264 265 264 264 264 263 263 263 263
272 271 271 270 270 269 269 268 268 267 267 266 265 265 264 264 264 264 263 263 263 263 263 263 263 263 263 263 263 264 263 263 263 264 264 265 264 264 263 263 263 263 263
272 271 271 270 270 269 269 268 267 267 266 266 265 265 264 264 263 263 263 263 263 263 263 262 263 263 263 263 263 263 263 263 264 264 265 265 264 264 263 263 264 263 264

GFSGL_925_thetae_120.txt.gz
Theta_e
325 324 328 328 328 328 326 327 327 326 326 327 326 324 324 322 322 321 319 318 318 319 320 321 321 320 317 317 317 317 317 317 318 318 316 308 304 305 301 298 298 297 294
324 324 328 328 327 327 326 325 324 324 326 326 324 325 325 323 322 321 320 321 320 320 319 319 319 318 317 317 317 317 317 317 317 317 309 302 299 299 296 296 292 290 291
324 325 326 327 326 325 324 324 324 323 323 323 324 325 325 324 322 322 320 320 320 319 319 318 318 317 317 317 317 317 317 317 317 317 304 298 292 292 291 291 290 288 287
323 324 326 326 324 324 324 324 322 322 322 322 323 323 323 323 324 323 322 320 319 318 317 317 317 317 315 317 317 317 317 317 316 312 297 292 288 288 289 286 285 283 283
322 324 324 323 324 325 324 323 323 322 321 321 321 321 322 322 322 322 321 320 319 317 316 317 317 315 316 316 317 317 317 313 307 298 291 287 285 284 283 280 280 282 281
322 323 323 324 325 324 324 322 321 321 320 320 320 320 320 321 321 321 320 318 314 310 307 307 306 315 315 316 315 310 308 307 300 291 285 283 281 279 278 278 279 281 282
315 322 323 324 324 324 323 322 320 320 319 319 318 318 316 312 319 320 317 308 303 304 300 300 299 297 304 304 300 299 297 296 296 291 284 280 278 277 277 278 279 280 280
311 322 323 323 323 323 322 320 319 317 316 314 312 311 310 302 314 311 307 301 298 295 293 292 297 293 294 297 294 290 286 284 283 281 278 276 276 276 276 277 278 279 279
310 321 322 322 322 322 317 317 315 313 308 307 304 304 304 297 302 309 306 296 291 289 288 289 291 289 287 291 290 281 277 276 276 276 275 275 275 275 276 277 278 279 279
299 312 321 321 321 315 314 309 305 308 302 300 297 296 295 294 295 301 304 294 287 284 284 285 286 284 283 284 283 278 275 275 274 274 274 274 273 273 274 275 276 277 277
297 306 319 319 316 313 307 305 302 298 295 292 291 290 290 291 290 292 294 291 285 283 282 281 280 280 280 280 278 276 275 274 274 274 274 274 274 274 273 273 273 275 275
295 299 310 313 311 306 303 296 295 294 290 288 287 286 286 287 286 285 286 286 283 282 280 279 278 278 277 276 276 275 275 274 275 275 275 274 274 274 274 273 273 273 272
292 294 294 297 299 298 296 293 291 290 289 287 286 284 283 283 282 281 281 280 279 279 278 278 277 276 276 275 275 274 274 275 275 275 275 274 273 273 273 273 273 273 273
291 291 292 291 290 291 291 291 290 289 288 286 285 284 282 281 281 280 280 279 278 277 276 274 274 274 274 273 273 274 275 275 275 274 273 273 273 273 273 272 273 273 275
288 288 288 290 288 286 287 287 286 286 285 284 283 282 281 280 280 279 278 276 275 274 274 274 274 274 275 274 273 273 274 273 273 273 273 273 272 273 272 272 273 274 275
286 286 286 286 286 285 284 283 285 285 286 283 282 280 280 278 278 277 276 275 275 276 277 276 276 276 275 274 273 272 272 272 272 272 272 272 273 272 273 273 273 273 274
285 285 284 284 284 284 283 283 282 281 281 280 280 279 279 278 277 277 276 276 275 275 276 275 274 274 274 273 272 271 271 271 271 271 271 271 272 272 273 273 273 273 273
282 283 283 283 283 282 282 282 281 281 281 280 279 279 278 277 276 276 275 275 275 275 275 275 274 273 273 272 272 271 271 271 271 271 271 270 271 272 272 272 272 271 271
280 280 280 280 280 280 281 280 280 280 279 279 278 277 276 275 275 275 276 276 275 275 274 274 273 273 272 272 272 271 271 271 270 270 270 270 270 271 271 271 272 270 270
278 278 278 278 277 277 277 277 278 278 278 277 276 275 275 276 275 275 275 275 274 273 273 272 272 271 271 271 270 270 270 270 270 270 270 269 269 270 271 271 271 271 271
279 278 278 277 277 276 276 276 276 276 275 275 274 274 275 275 274 274 273 273 273 272 272 271 271 270 270 270 270 270 270 270 269 269 269 269 268 269 269 270 270 271 271
279 279 278 278 277 276 275 275 275 274 273 272 271 271 272 273 272 272 271 271 271 270 270 270 270 270 269 270 270 269 269 269 268 268 268 267 268 269 269 269 270 270 270
277 277 277 276 276 275 275 274 274 273 272 271 271 271 271 271 271 270 270 269 269 269 269 269 268 268 267 267 268 269 269 268 267 266 266 267 267 268 268 269 269 269 269
277 277 276 276 275 274 274 273 272 271 271 271 270 270 270 269 269 268 268 268 268 267 267 267 267 266 265 266 266 266 265 265 265 264 265 264 266 267 267 267 268 268 268
276 276 275 275 274 273 272 271 271 271 270 270 269 269 268 268 268 267 266 266 266 265 265 265 265 264 265 265 265 264 265 265 265 265 264 264 264 264 265 266 266 267 268
276 276 275 274 273 272 272 271 271 270 270 269 269 268 268 267 267 266 265 265 265 264 264 264 264 264 264 264 264 264 264 264 264 265 264 263 264 265 266 266 266 266 267

GFSGL_925_thetae_123.txt.gz
Theta_e
326 326 326 327 329 331 331 331 331 331 330 328 325 322 321 319 319 319 320 321 322 323 323 324 325 324 323 324 323 324 322 321 322 314 309 304 304 305 303 302 299 297 295
325 325 326 325 329 329 329 329 330 330 329 327 326 324 322 320 319 318 319 320 321 322 323 323 324 324 324 324 323 321 320 318 318 316 303 301 299 296 295 294 293 292 293
320 324 325 325 328 329 328 328 327 327 327 328 326 326 324 322 320 318 319 319 319 320 321 322 323 323 323 322 320 319 319 318 317 317 304 299 294 293 293 290 289 288 289
315 323 324 326 328 328 327 326 326 326 326 326 326 327 327 324 322 321 320 321 320 320 320 321 322 322 322 320 318 318 317 317 317 316 305 296 292 290 290 288 286 285 285
312 317 324 325 327 326 325 325 325 325 324 324 324 324 324 324 324 323 322 321 321 321 321 321 320 320 319 318 317 316 315 317 315 308 296 290 287 286 286 285 283 283 281
310 314 320 324 325 325 325 325 324 325 324 322 322 321 321 321 322 322 323 321 320 317 318 317 317 318 317 317 315 314 315 316 307 298 290 286 284 283 281 281 282 284 284
309 311 314 324 324 326 325 324 324 323 321 320 319 318 317 316 319 321 320 314 308 307 307 305 306 303 307 307 311 311 308 306 304 299 288 284 281 280 279 280 281 282 281
305 307 312 322 325 325 325 323 321 319 317 315 313 312 310 304 311 315 315 306 301 296 298 299 302 300 300 304 302 297 292 291 291 290 288 281 279 279 279 279 280 280 279
301 302 305 320 324 325 323 318 317 315 309 307 305 305 303 296 301 311 309 297 294 292 292 292 293 294 292 297 298 285 279 278 278 279 279 278 277 278 278 279 281 282 281
295 296 301 306 323 321 316 314 308 308 302 300 297 297 295 293 294 300 305 295 289 287 286 286 286 285 286 291 291 282 277 276 276 276 275 276 277 276 277 278 279 280 281
293 294 298 305 317 318 312 309 304 299 296 293 292 291 291 291 290 290 293 291 287 284 282 282 281 281 280 281 281 278 276 275 275 275 275 275 275 275 276 276 276 277 279
291 293 295 306 311 311 307 299 297 295 291 289 288 287 288 288 287 287 287 287 285 283 281 280 279 279 278 278 278 277 276 276 276 276 276 276 276 276 276 275 275 275 274
291 292 293 297 299 303 299 294 292 291 290 288 287 286 285 284 284 283 283 282 281 280 279 279 279 278 278 277 277 276 276 276 277 277 277 277 276 275 275 276 275 275 275
289 291 292 293 291 292 293 293 292 290 289 287 285 284 283 282 281 281 280 280 279 279 278 276 276 276 276 276 277 278 278 279 278 277 277 276 276 275 275 275 275 276 277
287 288 290 290 289 286 286 287 288 289 288 286 284 283 282 281 281 280 279 277 276 274 275 276 276 276 276 276 276 277 277 277 277 277 276 275 275 275 275 275 276 277 277
286 286 287 287 286 285 284 284 284 283 283 282 282 281 280 279 278 277 277 276 276 277 277 278 278 277 277 277 277 276 276 275 275 275 275 276 275 276 276 276 276 276 276
284 285 285 284 284 284 283 282 282 281 281 281 280 280 279 278 278 277 278 278 278 279 278 278 278 277 276 275 275 275 275 274 275 275 275 275 275 275 276 276 276 276 275
282 282 283 283 283 282 282 282 281 281 280 280 279 279 279 278 278 278 278 278 278 278 277 277 277 277 276 275 274 274 274 274 275 274 274 274 275 275 275 275 275 274 274
280 280 281 281 281 281 281 280 280 279 279 278 278 278 277 277 278 278 278 278 278 277 277 277 276 275 275 275 275 275 275 274 274 274 273 273 274 274 274 274 275 274 274
279 278 279 279 280 280 280 279 278 277 277 276 276 276 277 278 278 278 277 277 277 277 276 276 275 275 275 275 274 272 272 273 273 274 273 273 273 274 274 274 274 274 274
280 278 278 277 278 278 278 278 278 278 278 278 279 278 277 277 277 277 276 276 275 275 275 275 274 274 274 274 274 274 274 273 272 272 272 272 271 273 272 273 273 273 273
281 280 279 278 277 277 276 276 275 275 275 275 275 276 276 276 276 275 275 275 274 274 274 274 273 273 273 274 273 273 272 272 271 272 270 270 271 272 272 272 272 272 273
280 279 278 278 277 276 276 275 274 274 274 274 274 274 274 274 274 273 273 273 273 273 273 272 272 272 271 272 272 272 271 271 270 269 269 270 270 271 270 271 271 271 271
279 279 278 278 277 276 275 275 274 275 275 274 274 273 273 273 273 272 272 271 271 270 270 270 270 270 269 269 269 269 268 268 267 267 267 267 269 269 269 269 270 270 270
279 279 278 277 276 276 275 275 274 274 274 273 273 272 272 271 271 270 270 269 269 268 268 267 266 266 268 268 267 267 267 266 267 267 266 266 267 267 267 268 268 269 269
279 278 277 276 276 275 275 274 274 273 272 272 272 272 271 270 270 269 269 268 268 267 267 266 266 265 265 265 264 266 266 266 266 267 266 265 266 267 268 268 267 268 268

GFSGL_925_thetae_126.txt.gz
Theta_e
321 323 327 327 327 328 331 332 331 331 330 328 326 322 322 322 322 322 322 323 323 321 323 324 324 324 324 323 322 324 323 322 317 306 306 303 303 305 302 303 299 298 295
318 319 324 327 326 327 329 331 331 332 331 329 326 323 322 322 321 321 321 322 323 323 323 323 322 323 323 323 323 324 323 322 317 307 300 299 297 297 299 298 296 294 293
315 315 319 325 326 326 329 330 331 331 330 329 327 325 323 323 321 320 320 321 322 323 323 322 322 321 322 322 322 322 322 321 317 308 299 298 293 294 293 293 293 291 290
313 314 315 322 325 325 327 329 328 329 329 329 327 326 323 323 322 320 319 320 321 322 323 323 323 323 322 322 322 321 321 319 315 308 302 297 293 291 292 290 288 287 286
309 311 313 314 323 325 328 328 328 327 326 327 327 327 326 324 322 320 319 319 320 320 321 323 323 321 322 322 321 320 319 317 314 309 299 294 289 287 290 288 286 285 281
309 309 311 311 317 325 326 327 326 325 325 325 325 325 324 324 323 322 321 319 319 319 319 320 321 321 322 322 320 319 318 316 312 312 306 297 290 289 288 288 285 283 283
307 307 307 306 313 324 325 326 325 324 324 323 322 322 321 322 323 322 322 321 320 319 316 318 318 316 321 318 318 317 317 315 312 312 307 294 286 286 287 285 285 284 281
303 304 302 301 306 318 325 325 324 324 321 319 317 316 315 314 317 320 321 316 308 302 304 304 312 306 308 314 312 307 303 302 304 304 298 291 291 287 287 284 282 281 279
298 298 298 298 299 306 316 322 322 319 315 313 309 307 309 302 304 311 314 304 297 295 296 297 298 297 296 300 300 293 287 284 286 290 289 285 282 280 281 282 281 281 281
294 293 294 296 297 301 312 315 314 315 307 303 299 298 298 296 296 299 306 298 292 289 289 290 292 293 291 300 302 292 280 279 280 279 279 279 281 281 282 282 282 282 281
291 291 293 295 296 304 310 311 308 303 298 295 293 292 292 292 292 293 293 294 289 285 284 283 283 284 285 287 289 284 280 279 279 279 277 276 276 276 277 279 279 279 279
289 290 292 293 298 308 305 301 300 297 293 290 289 288 288 289 288 288 289 288 287 285 281 281 280 280 280 281 281 278 277 277 276 276 276 276 276 276 276 276 276 277 277
288 289 291 292 296 299 298 296 294 293 291 289 288 287 286 285 285 284 283 283 283 281 280 280 280 279 279 278 278 277 277 277 277 277 277 276 276 276 276 276 276 276 276
288 288 290 290 292 294 294 294 294 292 290 289 287 285 283 283 282 282 281 281 280 280 279 278 278 278 278 278 278 278 278 278 278 277 276 276 276 276 276 276 276 277 277
287 286 287 287 287 287 286 286 289 291 290 288 286 284 283 282 281 281 280 278 277 277 277 278 278 278 278 278 278 278 278 277 277 277 276 276 276 276 276 276 277 277 277
286 285 285 285 284 285 284 283 284 285 285 284 283 283 282 281 280 279 278 278 278 278 278 278 278 278 278 278 278 277 277 276 276 276 276 276 277 276 276 276 276 276 276
283 284 284 283 283 283 283 283 283 282 282 281 281 280 280 279 279 279 279 279 279 279 279 278 278 278 277 276 276 276 276 276 276 276 276 275 276 276 276 276 275 275 275
281 282 282 282 282 282 281 281 281 281 280 280 280 280 280 280 280 280 280 279 279 278 277 277 277 276 276 276 275 275 275 275 275 275 275 276 276 276 276 275 274 274 275
280 280 281 281 280 280 280 280 280 280 280 280 280 280 280 279 279 279 279 278 278 278 278 277 276 276 275 275 275 275 275 274 274 274 274 275 275 274 274 275 274 274 274
279 279 279 280 279 278 278 277 277 277 278 278 278 278 278 278 278 278 277 277 277 276 276 276 275 276 276 275 275 274 274 274 274 273 273 274 274 274 274 274 273 274 274
279 278 278 277 278 278 278 278 278 279 279 278 278 278 277 277 277 277 276 276 276 276 275 275 275 274 274 274 274 274 274 273 273 273 272 272 273 272 273 273 273 273 273
279 278 278 277 277 276 276 276 276 276 277 277 277 276 276 276 276 275 275 275 275 274 274 274 274 274 274 274 274 273 272 272 272 271 271 271 272 272 272 272 272 272 272
279 278 278 277 276 276 275 275 275 275 275 275 275 275 274 274 274 274 274 274 273 273 273 273 273 273 273 273 272 272 272 271 271 270 270 271 271 271 271 271 271 271 270
279 278 277 276 276 276 276 275 275 275 274 274 274 274 273 273 272 272 272 272 272 272 271 271 271 271 272 271 271 271 270 269 269 269 269 269 269 270 269 269 269 270 269
279 277 277 276 276 276 275 275 274 274 273 273 272 272 272 271 271 270 270 270 270 270 270 269 269 270 270 269 269 269 269 268 268 268 267 267 267 267 268 268 268 269 269
278 277 277 276 276 275 275 274 274 273 273 272 272 271 271 270 270 269 269 268 268 268 267 267 267 268 268 268 268 267 267 267 267 267 267 267 267 267 268 268 267 267 267

GFSGL_925_thetae_129.txt.gz
Theta_e
315 315 315 316 323 327 327 329 332 332 332 331 329 328 326 326 325 325 324 324 324 324 324 324 324 324 323 324 323 322 321 319 315 302 304 303 301 303 302 303 300 301 299
314 313 313 314 319 325 327 326 330 331 331 330 328 326 325 322 321 323 322 322 323 323 323 324 324 323 323 323 323 322 322 321 315 303 298 298 297 299 299 300 297 295 295
311 310 310 312 314 320 325 326 326 330 331 329 328 326 325 322 322 322 322 322 323 323 322 323 324 323 321 323 323 322 321 319 314 305 299 296 292 295 294 294 294 292 292
308 309 309 310 311 312 319 325 325 329 331 329 328 326 326 324 321 321 320 321 322 323 322 323 323 323 323 323 323 320 318 315 311 304 298 294 291 290 293 291 288 288 288
306 307 308 308 308 309 314 323 326 327 330 330 329 327 326 325 323 322 321 320 321 322 323 322 323 322 322 322 322 321 317 310 305 300 296 292 290 288 290 289 286 286 284
304 304 305 305 304 304 310 317 324 327 329 329 328 327 325 324 323 322 323 320 320 320 321 322 322 322 322 321 321 321 320 316 305 301 298 294 292 291 290 290 286 283 283
301 300 301 301 300 300 302 310 324 326 327 326 326 326 325 324 324 323 321 320 319 319 319 320 319 321 321 321 320 321 318 315 316 315 305 298 292 294 294 288 287 287 282
298 297 295 295 296 298 299 305 314 324 325 324 323 323 322 321 322 322 321 318 318 316 316 315 315 313 319 320 316 313 312 311 309 311 310 305 302 295 293 290 288 283 279
293 292 292 293 294 296 298 301 307 318 320 320 319 317 316 314 313 313 319 312 307 303 303 303 303 305 310 317 309 299 294 291 295 301 303 296 294 291 291 290 281 282 281
289 289 290 291 293 295 296 298 305 309 315 312 307 307 307 305 302 306 310 306 298 294 293 292 295 295 292 302 306 296 286 284 286 286 284 286 285 284 284 285 285 283 280
287 288 289 291 292 294 296 300 305 302 302 301 299 296 297 298 295 300 301 299 294 290 288 288 289 292 294 294 296 294 287 285 283 283 282 282 283 283 283 284 284 283 281
286 288 289 290 291 293 297 302 302 298 293 292 291 290 291 291 292 293 294 294 290 288 284 283 282 286 287 289 288 282 283 283 281 279 278 277 278 279 280 280 279 279 278
285 287 288 288 289 291 295 297 295 294 292 291 289 288 287 287 287 287 288 287 287 284 282 281 281 281 280 279 279 279 280 278 278 277 277 276 276 276 275 276 276 276 275
285 286 286 287 286 287 290 294 294 293 292 291 288 286 285 284 283 283 283 283 282 281 281 280 279 279 279 278 278 278 278 278 277 277 276 276 276 276 277 277 277 276 276
284 285 285 284 285 284 284 287 291 292 292 291 288 286 284 283 282 283 283 281 280 279 279 279 280 279 279 278 278 278 277 277 277 276 276 276 276 276 277 277 277 277 276
283 284 283 283 283 283 283 284 285 287 290 288 286 285 283 283 282 281 280 280 279 280 279 279 279 279 278 278 278 277 277 277 276 276 276 276 276 277 277 277 276 276 276
281 282 282 282 282 281 282 282 282 282 282 283 282 282 282 281 281 281 280 280 280 280 279 279 278 278 277 277 277 277 277 276 276 276 276 276 276 276 276 276 276 275 275
280 280 280 280 280 280 280 280 281 281 282 282 281 281 281 281 281 281 280 279 279 278 278 277 277 277 276 276 276 276 276 276 276 276 276 276 276 275 274 274 275 275 275
279 280 279 278 278 278 279 279 280 281 281 281 282 282 281 281 280 279 279 278 278 277 277 276 275 275 275 275 275 275 275 275 276 276 276 275 275 275 274 274 274 274 274
278 278 278 278 278 278 278 278 278 278 278 278 278 278 278 278 277 277 277 277 276 276 276 275 275 275 275 275 275 274 274 275 275 275 274 274 274 274 274 274 274 273 273
278 277 277 277 277 277 278 278 278 278 277 277 277 277 277 277 276 276 276 276 276 276 275 275 275 275 275 274 274 274 274 273 274 274 274 274 273 273 273 273 273 273 272
277 276 276 276 276 276 276 277 277 276 276 276 276 275 275 275 275 275 275 275 275 275 275 275 274 274 274 274 274 273 273 273 272 273 272 272 273 273 272 272 272 272 271
277 276 276 276 276 276 275 275 275 275 275 274 274 274 274 274 274 274 274 274 274 274 274 274 274 274 274 274 273 273 272 271 271 272 272 272 272 272 271 271 271 271 270
277 276 276 275 275 275 275 274 274 274 274 273 273 273 272 272 272 272 272 273 273 273 274 274 273 273 273 272 272 272 271 271 271 271 271 271 270 270 270 270 270 269 269
276 276 276 275 275 274 274 274 273 273 273 272 272 272 271 271 271 272 272 272 272 272 272 272 272 272 272 271 271 271 270 269 269 269 269 269 269 268 268 268 268 268 268
276 276 275 275 274 274 274 273 273 272 272 271 271 271 270 270 270 270 270 270 270 270 270 270 270 270 269 269 269 269 269 268 268 268 268 268 268 268 268 268 268 267 267

GFSGL_925_thetae_132.txt.gz
Theta_e
312 311 311 312 313 317 322 325 327 327 331 332 331 330 330 330 329 328 327 327 326 326 326 325 325 325 324 322 321 319 319 319 316 301 303 302 304 306 305 307 306 306 303
309 309 309 310 311 312 314 319 325 326 326 331 330 331 330 329 329 328 327 326 326 325 324 324 324 324 324 323 321 320 319 319 313 303 297 298 297 299 301 302 300 300 299
306 306 307 307 308 309 309 311 317 324 326 329 329 329 328 328 327 325 325 323 322 322 323 323 324 324 324 323 322 321 320 318 313 302 298 296 292 295 295 294 294 291 292
304 304 304 305 305 306 306 307 312 319 325 327 329 329 328 327 325 323 321 321 322 321 322 323 323 324 323 323 322 322 321 316 310 305 298 295 292 290 293 291 288 289 287
302 301 301 301 302 301 302 304 306 315 322 326 327 327 327 326 324 323 320 320 320 321 322 322 323 323 323 322 322 322 319 312 308 301 297 293 290 288 289 288 286 285 285
299 299 298 297 297 297 298 300 303 308 317 325 327 326 325 326 325 325 323 321 320 320 321 321 322 322 323 323 322 320 319 310 305 302 300 295 293 291 291 290 285 284 284
296 295 294 294 294 295 295 297 299 302 311 318 326 326 325 326 326 325 323 322 321 321 320 321 321 322 322 322 322 321 320 320 317 308 300 299 293 293 297 289 288 287 284
292 291 291 291 292 293 294 296 297 299 304 314 324 325 327 326 326 324 323 320 320 319 319 319 319 321 321 320 314 311 313 314 315 312 310 306 304 301 300 296 290 289 284
288 288 288 289 291 292 294 295 296 297 300 309 318 322 322 321 323 324 323 318 314 312 312 313 314 315 314 312 314 305 300 300 305 310 311 308 305 301 301 295 289 286 280
285 286 287 288 290 291 292 294 295 297 300 306 307 310 320 318 315 318 319 314 306 303 301 302 302 305 304 300 305 303 293 290 296 295 295 295 295 293 293 295 291 284 280
284 284 286 288 289 290 291 292 296 298 300 301 301 296 302 310 306 306 310 310 304 297 294 293 293 296 296 295 294 296 292 289 288 288 287 285 285 286 287 287 288 289 284
283 284 286 287 288 288 288 292 295 297 297 296 294 292 294 295 299 298 302 305 299 296 289 288 288 291 292 292 290 286 289 289 286 284 282 282 284 284 284 286 286 285 281
282 283 285 285 286 286 287 289 291 295 294 292 292 290 288 289 290 292 293 294 293 290 286 284 284 285 286 285 285 288 288 286 284 281 279 278 279 279 280 280 278 277 276
281 282 284 284 284 285 285 286 288 292 293 292 291 290 288 286 285 286 286 287 286 284 282 281 282 282 282 280 281 282 282 281 280 278 277 277 277 277 276 276 276 276 276
281 282 283 283 283 283 283 284 285 288 291 292 291 289 287 285 284 285 286 285 283 281 280 280 280 280 279 279 278 278 278 278 277 277 276 277 277 277 276 276 276 276 275
280 281 281 281 281 281 282 282 283 285 288 292 291 290 287 286 284 284 283 281 280 281 281 280 279 279 279 278 278 277 277 277 277 277 277 277 277 277 277 276 276 276 276
279 279 279 280 280 280 280 281 281 282 284 285 286 287 286 284 283 282 282 281 281 281 280 279 279 279 278 278 277 277 277 277 277 277 277 277 276 276 276 276 276 276 276
279 278 278 278 278 279 280 280 281 281 282 282 282 282 282 282 282 281 281 280 279 279 278 278 278 278 277 277 277 276 276 276 276 276 276 276 276 276 275 275 275 275 274
278 278 278 278 278 278 278 278 279 279 281 281 282 282 282 281 280 279 278 278 277 277 277 277 277 277 276 276 276 276 276 276 276 276 276 276 275 275 275 275 274 274 274
277 277 278 277 278 278 278 278 277 277 277 278 278 278 277 278 277 277 277 276 276 276 276 276 276 276 276 275 275 275 276 276 276 276 275 274 275 275 274 274 274 274 273
277 277 277 277 277 277 277 277 277 277 276 276 276 277 277 276 276 276 276 276 275 275 275 275 275 275 275 275 275 275 275 275 275 275 275 274 274 274 274 273 273 272 272
276 276 276 276 276 276 276 275 275 275 275 275 275 275 275 275 275 275 275 275 275 275 275 275 274 274 274 274 274 274 274 274 274 274 274 273 273 273 273 273 272 271 271
276 276 276 275 275 275 275 274 274 274 274 274 273 273 273 273 273 273 273 274 274 274 274 274 274 274 274 274 274 274 274 274 274 273 273 273 273 272 272 272 271 270 270
276 276 275 275 275 274 274 274 273 273 273 272 272 272 271 271 272 272 273 274 274 274 274 274 274 274 274 273 273 273 272 272 273 272 272 272 272 271 271 271 270 269 269
276 275 275 274 274 274 273 273 273 272 272 272 271 271 271 272 272 273 273 273 273 274 274 273 273 273 272 272 272 271 271 271 271 271 271 271 271 270 270 269 269 269 269
275 275 274 274 274 273 273 272 272 272 271 271 271 271 271 271 271 271 272 272 272 272 272 272 271 271 271 270 270 269 270 269 270 270 270 269 269 268 268 268 268 268 267

GFSGL_925_thetae_135.txt.gz
Theta_e
308 308 308 309 310 311 311 315 320 324 325 326 328 331 330 330 330 330 330 329 329 328 327 326 326 325 325 325 323 321 320 320 319 302 306 305 307 311 309 311 311 312 311
305 305 306 306 306 307 308 308 311 316 322 325 326 330 330 330 329 329 329 328 327 327 326 326 326 326 325 325 323 322 320 319 315 302 298 300 302 304 307 307 306 307 305
302 302 302 302 303 303 303 305 306 309 315 322 325 326 328 329 329 329 329 328 327 326 326 326 325 325 324 324 324 322 321 319 314 303 298 298 294 297 298 298 298 297 296
299 299 299 298 298 299 300 302 303 305 308 317 321 325 326 327 327 328 327 326 326 326 325 325 324 323 323 323 323 321 320 317 310 305 300 297 293 291 295 293 290 291 289
297 298 296 295 296 297 297 298 301 303 305 309 315 324 326 326 325 326 326 326 324 323 322 322 322 322 322 322 323 322 320 314 308 303 298 294 292 289 291 290 288 287 286
294 293 292 292 293 294 295 296 298 300 301 304 311 315 326 325 325 326 325 324 322 321 320 321 321 321 322 323 323 322 321 312 308 303 300 296 293 291 291 290 286 285 285
290 289 289 290 291 292 293 294 296 297 298 298 303 310 320 325 325 325 325 323 322 320 319 320 321 321 322 322 322 323 320 316 317 313 302 299 294 292 292 289 289 289 287
287 286 287 287 289 290 292 293 294 295 296 298 301 306 313 324 324 324 322 322 321 321 321 321 321 321 321 321 322 322 320 318 316 309 307 307 305 299 298 296 292 290 289
285 285 285 286 288 290 290 291 292 294 295 298 300 303 307 315 323 321 321 320 319 318 318 318 318 318 319 319 318 317 312 308 307 307 312 308 302 300 296 294 289 289 283
283 283 284 286 287 288 289 290 290 292 294 297 299 302 304 307 312 317 322 320 314 312 311 311 312 312 313 313 313 312 301 299 302 301 300 299 296 293 294 296 295 291 282
282 283 283 285 286 287 287 287 288 290 294 297 296 299 299 301 306 304 316 320 315 307 305 303 303 303 305 304 304 303 298 295 293 293 291 291 292 291 292 294 292 290 286
281 282 282 284 284 285 285 285 287 288 293 294 294 295 295 295 296 300 298 309 311 307 298 296 294 295 296 297 297 296 291 291 290 289 287 284 285 286 289 290 290 290 292
281 281 281 282 282 283 283 284 285 287 291 292 292 292 291 291 292 292 295 295 299 299 293 291 289 291 291 290 288 288 289 289 286 285 282 281 283 284 285 285 284 286 285
280 280 280 280 281 281 283 283 284 285 287 290 292 290 289 288 288 287 286 288 290 290 285 284 285 285 285 282 284 285 287 287 285 282 279 278 280 280 278 278 278 279 278
280 280 279 279 280 280 281 282 282 283 285 286 290 291 289 287 286 286 286 285 284 283 284 283 282 281 281 281 281 281 281 281 280 279 278 277 277 277 276 276 276 276 276
279 279 278 278 279 279 280 281 282 282 284 285 288 290 289 289 287 286 285 284 281 282 282 281 281 281 280 280 279 278 279 279 278 278 278 277 277 276 276 276 276 276 276
278 278 278 277 278 278 278 278 278 281 282 283 285 286 287 286 285 284 283 282 282 282 281 281 280 279 279 278 278 278 278 278 278 278 277 277 277 276 276 276 276 276 275
278 278 278 278 278 278 278 277 277 278 280 281 282 283 283 283 283 283 282 281 280 280 279 279 279 278 278 278 278 277 277 277 277 277 277 276 276 276 276 275 275 274 274
277 277 277 278 278 278 277 277 277 277 277 277 278 278 279 279 279 279 278 278 278 277 277 277 277 277 277 277 277 277 277 277 276 276 276 276 275 275 275 275 274 274 274
277 277 277 277 277 277 277 277 276 276 276 276 277 277 278 278 277 276 277 277 277 277 277 276 276 276 276 276 276 276 276 276 275 275 275 275 275 275 274 274 274 274 273
276 276 276 276 276 276 275 275 275 275 275 275 275 275 276 275 275 275 275 275 275 275 275 275 275 275 276 276 276 275 275 275 275 274 274 274 274 274 274 274 273 273 272
276 276 276 275 275 275 275 274 274 274 274 274 273 274 274 274 274 274 274 274 274 274 275 275 275 275 275 275 275 275 275 274 274 274 274 274 274 274 273 273 272 272 271
276 276 275 275 275 274 274 274 273 273 272 272 272 272 272 271 271 272 272 273 273 274 275 275 275 275 275 275 275 275 275 274 274 274 274 274 273 273 272 272 271 271 271
276 275 275 274 274 274 273 273 272 272 272 271 271 271 271 270 271 271 272 273 274 274 275 275 275 275 275 275 275 275 274 274 274 274 274 273 272 272 271 271 270 270 270
275 275 274 274 273 273 273 272 272 271 271 271 271 271 271 271 271 272 273 274 274 274 273 273 273 273 273 273 273 273 273 273 273 273 273 272 272 271 270 270 269 269 269
275 274 274 274 273 273 272 272 271 271 271 271 271 271 271 271 271 272 272 273 273 272 272 272 272 272 271 271 271 271 271 271 271 271 271 271 270 270 269 269 269 268 268

GFSGL_925_thetae_138.txt.gz
Theta_e
303 303 304 304 306 306 306 307 308 313 319 324 326 326 327 329 331 330 330 330 329 328 328 327 327 326 326 325 324 323 321 321 321 308 311 312 312 315 315 315 316 316 315
300 301 301 301 301 301 302 303 305 307 309 315 322 325 326 328 329 329 329 329 329 328 327 327 327 326 325 325 325 323 322 321 321 304 303 304 307 310 311 311 311 312 313
298 298 297 297 297 298 298 299 300 302 306 309 315 320 324 326 329 329 328 329 328 328 328 327 327 326 325 324 325 324 323 321 320 308 301 301 297 301 305 304 303 304 304
295 295 294 294 294 295 295 297 298 300 302 304 308 314 319 324 325 328 327 328 328 327 328 327 326 325 325 325 325 324 323 321 316 308 306 299 295 294 299 298 293 295 295
291 291 291 291 291 292 293 294 296 298 300 302 304 307 313 319 324 325 326 327 327 326 326 326 326 326 326 325 324 323 322 322 311 305 300 296 293 291 293 293 291 289 289
288 288 288 288 289 290 291 292 294 295 296 297 299 302 307 312 319 324 325 325 325 325 324 324 325 325 324 322 322 322 322 319 309 305 301 298 296 293 294 292 289 287 287
286 286 286 286 287 288 290 291 292 293 294 295 297 299 302 308 314 319 324 324 323 323 323 323 322 322 321 321 321 321 322 321 318 310 303 301 297 295 294 292 291 291 289
284 284 284 285 286 288 289 290 291 292 292 293 296 298 300 303 308 314 320 323 321 322 322 322 321 321 320 321 321 321 321 322 316 313 310 307 307 301 300 298 293 291 289
283 283 283 284 285 286 287 288 288 289 289 292 294 297 298 301 305 309 311 313 318 319 322 321 321 321 321 321 320 320 320 318 316 313 310 308 304 304 296 294 290 292 285
282 282 283 283 284 285 286 286 286 287 288 291 294 296 297 298 300 304 306 308 314 316 319 319 318 319 319 320 319 318 314 315 312 309 306 305 302 296 295 299 295 293 286
281 281 282 281 283 283 284 284 285 285 287 290 292 294 296 296 297 298 300 305 307 311 310 312 312 314 315 314 315 315 314 312 303 303 302 300 296 293 292 295 294 294 292
280 281 281 281 281 282 282 282 283 284 286 288 291 292 294 293 294 295 296 300 302 304 303 308 307 306 306 306 306 305 304 302 297 294 292 290 289 289 290 292 292 292 292
280 280 280 280 280 280 280 281 282 283 284 285 287 290 291 292 291 292 292 295 298 299 300 298 299 296 297 296 297 297 296 294 291 287 284 283 284 285 287 289 290 291 290
279 279 279 278 278 279 279 280 279 281 282 284 285 286 290 291 289 290 290 289 291 293 291 288 289 290 291 288 287 288 289 289 287 283 281 281 282 282 283 285 283 281 282
278 278 278 277 277 278 278 279 279 281 282 284 284 285 288 289 289 288 288 289 288 285 285 284 284 283 283 284 284 285 285 284 283 281 280 279 279 280 279 279 279 280 277
277 277 277 277 277 277 277 278 281 281 282 281 284 286 287 288 288 287 286 286 285 284 284 282 282 282 282 281 281 280 281 281 280 279 279 278 278 278 278 278 278 277 277
277 276 276 277 277 277 277 277 276 280 280 279 280 283 286 286 286 286 285 283 283 283 282 281 281 280 280 280 279 280 279 279 279 279 278 278 277 277 277 277 276 276 276
277 277 277 277 277 277 277 277 276 276 276 277 279 279 280 281 282 283 282 281 280 281 280 279 279 279 279 278 278 278 278 278 278 278 277 277 277 277 276 276 275 275 275
277 276 277 277 277 277 276 276 276 276 275 275 276 278 279 279 280 279 280 278 278 278 278 278 278 278 278 278 278 277 277 277 277 277 276 276 276 276 275 275 275 275 275
277 276 276 276 276 276 275 275 275 275 275 274 275 275 276 277 276 276 276 277 277 277 277 277 277 277 277 277 276 276 276 276 276 276 276 276 275 275 274 274 274 274 274
276 276 276 275 275 275 275 274 274 273 273 273 273 273 274 275 275 275 275 275 275 275 276 276 276 276 276 276 276 275 275 275 275 275 275 274 275 274 274 274 274 273 273
276 276 275 275 274 274 274 273 273 272 272 272 271 272 272 272 272 272 272 272 273 273 274 274 274 275 275 275 276 276 275 275 275 274 274 274 274 274 274 274 273 273 273
276 275 275 274 274 274 273 272 272 272 271 271 271 270 270 270 270 270 270 271 272 273 273 274 274 275 275 275 275 275 274 274 274 275 275 274 274 273 273 272 272 272 272
275 275 274 274 273 273 272 272 272 271 271 270 270 270 270 270 270 270 270 271 272 273 274 275 275 276 276 275 275 275 275 275 275 275 275 274 273 273 272 271 271 271 271
274 274 274 273 273 272 272 271 271 271 271 270 270 270 270 270 270 270 271 272 273 273 274 274 274 274 274 274 274 274 274 274 274 274 273 273 272 272 271 271 270 270 270
274 273 273 273 272 272 272 271 271 271 270 271 270 270 270 270 270 271 272 272 272 272 272 272 272 273 273 273 273 273 273 273 273 272 272 272 271 270 270 269 269 269 269

GFSGL_925_thetae_141.txt.gz
Theta_e
301 301 301 301 301 302 303 303 304 306 308 312 316 320 323 326 328 327 329 329 328 329 329 328 327 327 326 325 325 323 322 323 325 314 316 316 317 316 318 319 318 318 318
297 297 298 297 298 299 299 300 300 301 304 306 309 314 320 324 325 327 329 329 328 329 328 328 327 327 326 326 325 324 323 322 323 318 312 311 313 313 314 318 318 317 318
293 294 294 294 295 296 297 297 298 299 301 303 305 308 313 318 323 326 327 327 328 329 329 328 328 327 326 326 325 324 324 324 323 317 307 307 305 307 307 310 313 313 314
289 290 291 292 292 293 294 295 296 297 299 301 302 303 306 312 316 321 325 327 328 328 329 328 327 326 326 325 325 325 324 323 322 316 307 303 302 300 300 299 298 302 305
288 289 289 289 290 291 292 294 295 296 297 298 299 300 302 305 310 313 318 324 326 327 328 327 327 327 327 326 325 324 324 323 320 313 303 299 297 295 296 295 294 293 293
287 286 287 287 288 290 291 292 293 293 294 295 297 299 300 302 303 306 310 314 323 325 326 327 327 327 327 327 325 324 324 322 315 311 305 303 300 298 296 296 292 291 291
285 285 286 286 287 288 289 290 291 291 292 292 294 297 298 299 301 303 305 309 317 323 324 324 324 326 324 326 325 325 324 323 322 319 308 306 301 299 297 294 292 294 295
284 284 284 285 285 286 287 288 288 289 289 290 292 294 296 298 300 302 304 307 311 317 322 323 322 323 324 324 324 323 322 322 321 320 319 317 314 306 304 301 295 294 292
283 283 283 284 284 285 286 286 286 286 287 288 290 292 294 295 297 300 300 302 306 313 316 321 322 322 325 322 321 321 321 321 321 320 318 318 314 307 300 297 292 293 288
282 282 282 282 282 283 284 284 284 285 285 286 288 290 293 293 295 296 298 298 300 305 311 317 320 321 322 321 320 320 319 320 320 317 309 308 307 302 299 301 295 296 292
281 281 281 281 281 282 282 283 283 284 285 285 286 288 291 292 293 294 295 295 297 299 303 310 315 319 318 320 320 320 320 320 316 311 306 305 304 301 296 296 296 297 294
281 281 280 280 280 281 281 281 282 283 284 284 285 286 287 290 291 292 293 293 295 295 299 302 305 308 311 314 316 316 315 313 310 303 301 298 297 295 293 294 295 296 294
280 280 279 279 279 279 280 280 281 282 282 283 284 285 285 287 289 290 292 291 293 293 295 298 300 301 302 300 305 307 306 304 300 295 291 289 289 289 289 291 291 292 292
279 278 278 278 279 279 279 280 280 281 282 283 283 284 285 286 288 289 290 290 290 291 290 290 292 294 295 295 292 295 296 296 294 290 285 285 285 285 287 289 288 286 286
279 278 278 278 278 279 279 279 279 280 280 281 282 283 286 287 288 287 287 287 288 289 287 287 287 287 287 287 287 289 289 289 288 285 283 282 282 283 282 283 283 283 280
278 278 278 278 278 278 279 279 279 279 279 279 280 281 282 285 286 286 286 285 286 285 285 284 284 284 283 283 283 283 283 283 282 282 281 281 280 280 279 280 280 280 279
277 277 278 278 278 278 278 278 279 278 278 278 278 279 280 281 281 283 284 284 283 283 283 282 282 282 281 281 281 281 280 280 280 280 280 279 279 279 279 279 279 279 279
276 276 277 277 277 277 278 278 278 278 278 278 277 277 277 278 279 280 281 282 281 281 281 280 280 280 280 280 280 279 279 279 279 279 279 279 279 278 278 278 278 278 278
276 277 277 277 277 276 277 277 277 277 276 276 276 276 276 277 277 278 278 279 279 279 278 279 279 279 278 278 278 278 278 278 278 278 278 278 278 277 277 277 277 277 278
277 276 276 277 276 276 276 276 276 275 275 275 275 274 275 276 277 277 277 277 277 278 277 277 277 277 277 277 277 277 277 277 277 277 276 276 276 276 276 276 277 277 277
277 276 276 276 276 275 275 275 275 274 274 274 273 272 272 274 274 274 274 274 275 276 276 276 276 277 277 277 276 276 276 276 276 276 276 276 276 276 276 276 276 276 276
276 276 276 275 275 275 274 274 274 274 273 273 273 272 271 272 271 271 271 272 273 273 274 274 275 275 275 275 276 276 275 275 275 275 275 275 275 274 274 274 274 275 275
275 275 275 275 274 274 274 273 273 273 273 272 272 271 271 270 269 269 269 270 270 271 272 273 273 274 274 275 275 275 275 275 275 275 274 274 274 274 274 274 274 274 274
274 274 274 274 273 274 273 273 273 272 272 272 271 270 270 269 269 269 269 270 271 271 271 272 273 273 274 274 275 275 275 274 274 274 275 274 273 273 273 272 272 272 272
273 273 273 273 273 273 273 273 272 272 271 271 270 270 269 269 269 269 269 270 271 272 272 273 274 274 275 275 275 275 275 275 275 275 275 274 273 272 272 271 271 271 271
272 272 272 272 272 272 272 272 272 271 271 270 269 269 269 269 269 269 270 271 271 271 272 272 272 273 273 273 273 274 274 274 274 274 273 273 272 271 271 271 270 269 269

GFSGL_925_thetae_144.txt.gz
Theta_e
293 296 298 301 303 306 307 307 309 310 311 313 315 320 322 324 328 328 328 329 329 330 329 329 329 329 329 328 329 328 328 328 330 329 327 326 322 321 321 320 320 320 319
291 293 295 298 299 301 303 304 305 306 307 308 311 313 318 322 322 327 327 328 328 329 329 329 329 329 329 328 327 326 326 326 326 328 321 316 317 317 318 319 318 319 319
291 291 293 294 295 297 300 301 302 304 305 306 308 309 310 313 318 320 322 325 327 328 329 328 329 329 328 328 327 326 326 326 326 326 320 314 309 311 312 313 315 316 318
290 292 292 292 293 295 297 299 300 301 302 303 304 305 307 308 311 315 315 317 321 326 327 328 329 329 328 327 327 326 326 326 325 324 315 309 308 308 308 308 307 309 311
288 289 290 290 292 293 295 295 297 298 299 299 301 303 304 306 308 304 304 306 310 319 324 327 328 329 328 328 327 326 326 326 326 324 311 304 303 301 303 303 302 301 301
288 288 289 289 290 291 292 293 294 295 296 297 298 299 301 302 302 300 300 300 305 309 317 324 326 326 327 328 327 326 326 326 324 319 311 310 305 307 304 301 297 294 294
286 286 287 287 287 289 290 291 292 292 292 293 295 296 297 298 298 298 298 297 302 308 311 317 323 325 326 327 326 326 326 326 325 321 313 313 309 310 306 299 298 298 299
285 285 285 285 286 286 288 289 290 289 290 291 292 294 295 296 296 296 297 297 302 306 306 311 318 323 324 325 325 325 324 325 324 323 321 319 318 313 314 310 301 296 295
284 284 284 285 285 286 286 287 287 288 289 289 290 291 293 294 294 294 294 295 298 300 302 306 311 316 321 324 323 324 324 324 324 323 322 321 320 318 315 303 295 294 292
284 284 284 284 285 285 286 286 287 288 288 288 289 289 289 291 293 293 292 293 294 296 297 303 309 312 313 321 321 319 318 322 322 321 319 317 315 313 311 314 302 296 293
283 284 284 284 283 284 285 286 286 287 287 287 287 288 289 289 290 290 290 290 292 292 293 296 300 306 309 311 315 319 319 321 321 320 318 313 310 308 303 301 302 299 295
283 283 283 283 283 283 284 285 284 285 286 286 286 287 288 288 288 288 289 290 290 289 291 293 296 299 304 307 309 310 312 319 317 314 307 303 303 301 299 298 298 297 297
283 282 282 282 282 283 283 283 284 283 284 284 285 286 286 287 288 289 289 289 289 289 290 291 294 296 298 301 305 308 305 307 309 302 299 297 298 298 296 294 294 294 295
282 281 281 281 281 282 282 282 282 282 282 283 284 283 284 285 285 287 287 287 288 288 288 289 290 291 293 296 297 298 300 302 302 297 294 292 291 291 291 292 290 290 290
281 282 282 281 281 281 282 282 281 281 280 280 281 281 282 283 283 283 286 286 286 285 285 286 287 287 288 289 290 291 292 293 295 293 290 286 286 286 286 287 287 287 283
281 282 281 281 281 281 281 282 282 281 280 280 279 279 280 280 280 282 283 284 284 284 285 287 287 285 285 285 285 285 286 288 288 288 285 284 283 283 282 283 284 283 281
279 280 280 281 280 280 280 280 281 281 281 280 279 278 278 278 279 280 281 281 283 282 285 285 284 284 283 283 283 283 282 283 284 284 283 282 282 281 282 282 281 281 281
279 279 279 280 280 279 280 280 280 280 280 280 279 278 277 278 279 279 279 282 284 283 283 283 282 282 281 281 281 281 281 281 281 281 281 281 281 281 281 281 282 282 281
279 279 279 279 279 279 279 279 279 279 279 279 278 277 276 277 278 278 279 280 281 281 281 281 281 280 280 279 279 280 280 279 280 280 280 280 280 280 280 280 281 281 282
279 279 278 279 279 279 279 278 278 278 278 277 277 276 274 276 277 277 277 278 279 280 280 280 279 279 279 279 278 278 278 278 278 278 278 278 279 279 279 280 280 281 281
279 279 278 279 278 278 278 277 277 277 277 277 276 275 273 275 275 275 275 276 277 278 278 278 278 279 278 278 278 278 277 277 277 277 277 278 278 279 279 279 279 278 278
278 278 278 278 278 277 277 277 277 277 276 276 276 275 274 274 274 274 274 273 274 274 276 277 278 278 278 278 277 277 277 277 277 277 277 277 277 278 278 278 278 278 278
277 277 277 277 277 277 277 277 276 276 276 275 275 275 274 273 273 272 272 271 271 272 273 274 275 276 276 276 276 277 277 276 276 276 277 277 277 277 278 278 277 278 278
276 276 276 276 276 276 276 276 276 275 275 275 275 274 274 273 272 271 271 270 271 271 271 272 272 273 274 274 274 274 275 275 275 275 275 275 276 276 276 276 276 276 276
275 275 275 275 275 276 276 276 276 275 275 275 274 274 273 272 272 271 270 270 270 270 271 271 271 272 273 274 274 275 275 276 275 275 275 275 274 274 274 274 274 274 274
274 274 274 274 274 275 275 275 275 275 274 274 273 273 272 271 270 269 269 269 270 270 271 271 272 273 274 274 274 275 275 275 275 274 273 273 273 273 273 273 273 273 273

GFSGL_925_thetae_147.txt.gz
Theta_e
289 291 292 295 297 299 304 308 311 313 315 318 319 323 325 327 328 329 329 328 329 329 330 330 331 331 330 330 330 331 331 331 332 332 330 328 326 326 325 324 324 323 321
288 292 292 291 294 296 301 303 307 309 311 312 315 316 320 321 324 324 326 328 328 329 329 329 329 329 329 329 330 330 330 331 330 331 330 328 327 325 324 323 322 321 321
288 290 291 291 291 295 297 300 303 305 307 309 310 311 313 315 317 320 321 320 321 325 327 328 328 329 329 329 329 329 329 329 328 328 327 324 322 321 321 320 320 320 321
288 290 291 291 291 293 296 296 298 302 303 304 306 308 310 311 312 311 310 310 313 316 319 324 327 328 328 328 329 328 328 327 327 327 324 316 315 313 313 314 315 317 318
288 289 290 290 291 291 293 294 296 296 299 301 303 304 306 308 302 302 301 303 305 309 314 317 322 327 327 328 328 328 327 326 326 326 317 310 309 306 306 310 310 310 311
288 288 289 289 290 290 291 294 295 295 296 298 300 301 302 303 300 298 297 298 301 304 309 314 317 321 324 327 326 328 328 326 326 325 323 315 312 310 312 308 306 299 300
287 287 287 288 288 289 290 291 293 293 294 295 295 297 299 300 297 295 295 296 300 303 306 308 311 315 319 323 324 325 327 326 326 325 322 317 317 314 313 307 304 304 304
287 286 286 287 287 288 289 289 290 292 292 292 293 294 294 296 293 293 293 297 299 300 301 301 302 304 308 314 321 323 323 325 325 326 324 322 322 319 315 315 309 301 299
286 286 286 287 287 287 288 288 289 290 291 291 292 292 292 291 293 291 291 294 295 295 297 298 297 299 303 307 308 313 321 323 324 323 324 324 321 319 317 312 301 298 291
286 286 286 286 287 287 287 288 289 289 290 290 290 290 291 292 291 289 289 290 292 293 293 293 295 297 298 300 301 304 312 317 321 321 321 320 320 318 319 319 313 299 291
285 286 286 286 286 286 287 287 287 287 287 288 287 288 290 289 289 288 289 290 290 290 291 292 293 293 294 294 299 300 304 313 318 320 321 320 317 315 313 311 312 308 298
285 285 285 285 285 285 285 286 286 285 285 286 286 286 287 286 287 286 285 287 288 288 289 290 290 291 293 296 298 300 303 306 310 313 312 310 308 308 309 306 306 303 303
284 283 284 284 284 283 284 284 284 284 284 284 285 285 284 284 285 284 284 285 287 287 288 288 287 289 290 293 295 296 300 301 303 305 305 305 307 306 304 301 299 298 298
283 283 283 283 283 283 283 284 284 283 282 282 282 282 282 283 283 281 282 283 284 286 286 285 286 288 289 290 291 292 293 295 299 303 303 303 300 297 297 297 293 294 293
282 283 283 282 283 283 283 283 283 283 282 281 281 281 280 281 280 280 280 281 282 283 283 285 287 289 289 288 288 289 290 291 293 296 295 294 293 293 291 292 290 289 286
281 282 282 282 282 282 282 282 282 282 282 281 281 280 279 279 279 279 280 280 281 282 283 286 288 288 287 287 286 286 286 287 288 289 290 290 290 290 289 289 288 287 284
280 281 281 281 281 281 281 282 282 282 282 281 280 280 278 278 278 279 279 280 282 284 285 285 286 286 285 284 284 284 283 284 285 286 287 286 286 285 285 285 285 284 283
281 281 281 280 281 281 281 281 281 281 281 281 280 279 277 277 278 278 278 280 282 282 283 284 284 283 283 282 282 282 282 282 283 283 284 284 284 284 283 283 283 283 283
281 281 280 280 281 281 281 280 280 280 280 280 279 279 276 276 278 278 278 278 280 281 282 282 282 282 282 281 281 281 281 281 281 282 282 282 283 283 283 282 282 283 283
280 280 280 280 281 280 280 280 280 280 279 279 279 278 276 277 277 277 277 277 277 278 280 281 281 281 281 280 280 280 280 280 280 280 280 281 281 282 282 283 283 283 285
280 280 280 280 280 280 279 279 279 279 279 278 278 277 276 276 276 276 276 275 275 276 277 279 280 281 280 279 279 279 279 279 280 279 280 280 280 281 281 282 280 281 281
279 279 279 280 279 279 279 279 279 278 278 278 277 277 276 276 275 275 274 274 274 275 275 276 278 278 279 279 279 279 279 279 279 279 279 280 280 279 279 280 280 280 281
278 278 279 279 279 279 279 279 279 278 277 277 277 276 276 275 275 274 273 273 273 273 274 274 275 276 276 277 278 279 279 279 279 279 279 279 280 279 279 279 279 279 279
277 277 278 278 278 278 278 278 278 278 277 277 276 276 275 275 274 273 273 272 272 272 272 272 273 273 274 275 275 276 276 277 277 278 278 279 279 279 279 279 279 279 279
276 276 276 277 277 277 277 278 277 277 277 276 276 275 275 274 273 273 272 272 271 271 271 271 271 272 272 273 273 274 275 275 276 276 276 276 276 276 276 277 277 277 277
275 275 275 275 275 275 275 276 276 276 276 275 275 274 273 273 272 271 271 270 270 270 270 270 270 271 271 271 272 274 274 274 274 275 275 275 275 275 275 275 275 276 276